Sigfox identifier Datetime Temperature Humidity SNR
003C0732 2019-04-12 12:32:26 20.9 17 25.1
003C0732 2019-04-12 12:01:19 20.9 17 24.7
003C0732 2019-04-12 11:30:14 21 17 24.7
003C0732 2019-04-12 10:59:10 21 18 24.7
003C0732 2019-04-12 10:28:06 20.9 17 24.7
003C0732 2019-04-12 09:57:02 20.9 18 24.8
003C0732 2019-04-12 09:25:58 20.8 17 24.8
003C0732 2019-04-12 08:54:53 20.7 17 24.9
003C0732 2019-04-12 08:23:48 20.7 17 25
003C0732 2019-04-12 07:52:43 20.8 18 24.5
003C0732 2019-04-12 07:21:39 20.8 18 24.6
003C0732 2019-04-12 06:50:35 20.8 18 24.3
003C0732 2019-04-12 06:19:29 20.8 18 24.3
003C0732 2019-04-12 05:48:25 20.8 18 24.3
003C0732 2019-04-12 05:16:46 20.8 18 24
003C0732 2019-04-12 04:45:39 20.8 18 24
003C0732 2019-04-12 04:14:34 20.9 18 23.8
003C0732 2019-04-12 03:43:27 20.9 18 23.7
003C0732 2019-04-12 03:12:21 20.9 18 23.5
003C0732 2019-04-12 02:41:15 20.9 18 23.3
003C0732 2019-04-12 02:10:10 20.9 18 23.3
003C0732 2019-04-12 01:39:05 21 18 23.9
003C0732 2019-04-12 01:07:58 21 18 23.6
003C0732 2019-04-12 00:36:52 21.1 18 23.5
003C0732 2019-04-12 00:05:44 21.2 18 23.7
003C0732 2019-04-11 23:34:39 21.3 18 23.8
003C0732 2019-04-11 23:03:32 21.3 18 23.8
003C0732 2019-04-11 22:32:25 21.3 18 23.8
003C0732 2019-04-11 22:01:18 21.3 18 23.7
003C0732 2019-04-11 21:30:12 21.3 18 24.2
003C0732 2019-04-11 20:59:05 21.3 17 24.2
003C0732 2019-04-11 20:27:58 21.3 17 24.1
003C0732 2019-04-11 19:56:51 21.2 17 24
003C0732 2019-04-11 19:25:45 21.2 17 23.9
003C0732 2019-04-11 18:54:39 21.2 17 23.9
003C0732 2019-04-11 18:23:35 21.2 17 24
003C0732 2019-04-11 17:52:29 21.2 16 24.1
003C0732 2019-04-11 17:21:24 21.2 16 24
003C0732 2019-04-11 16:50:20 21.3 17 24
003C0732 2019-04-11 16:19:13 21.2 18 23.9
003C0732 2019-04-11 15:48:04 21.2 18 23.9
003C0732 2019-04-11 15:16:58 21 18 24
003C0732 2019-04-11 14:45:51 20.9 17 24.1
003C0732 2019-04-11 14:14:43 20.9 18 24.2
003C0732 2019-04-11 13:43:38 20.9 18 24.8
003C0732 2019-04-11 13:12:33 20.8 17 24.8
003C0732 2019-04-11 12:41:29 20.8 17 24.2
003C0732 2019-04-11 12:10:24 20.8 18 24.3
003C0732 2019-04-11 11:39:18 20.8 18 24.4
003C0732 2019-04-11 11:08:11 20.8 18 24.8
003C0732 2019-04-11 10:37:04 20.7 18 24.9
003C0732 2019-04-11 10:05:56 20.6 18 24.8
003C0732 2019-04-11 09:34:49 20.6 18 24.8
003C0732 2019-04-11 09:03:42 20.6 18 24.8
003C0732 2019-04-11 08:32:37 20.6 18 24.5
003C0732 2019-04-11 08:01:33 20.6 18 24.6
003C0732 2019-04-11 07:30:29 20.6 18 24.7
003C0732 2019-04-11 06:59:23 20.6 18 24.8
003C0732 2019-04-11 06:28:18 20.6 18 24.9
003C0732 2019-04-11 05:57:12 20.7 18 24.9
003C0732 2019-04-11 05:26:09 20.7 18 24.9
003C0732 2019-04-11 04:55:05 20.7 18 24.9
003C0732 2019-04-11 04:24:01 20.7 18 24.8
003C0732 2019-04-11 03:52:57 20.7 18 24.8
003C0732 2019-04-11 03:21:18 20.7 18 24.8
003C0732 2019-04-11 02:50:10 20.8 18 24.7
003C0732 2019-04-11 02:19:03 20.8 18 25.1
003C0732 2019-04-11 01:47:56 20.8 18 25
003C0732 2019-04-11 01:16:50 20.8 18 24.5
003C0732 2019-04-11 00:45:44 20.9 18 24.3
003C0732 2019-04-11 00:14:38 20.9 18 24.4
003C0732 2019-04-10 23:43:33 20.9 19 24.4
003C0732 2019-04-10 23:12:27 20.9 18 24.5
003C0732 2019-04-10 22:41:21 20.9 18 24.1
003C0732 2019-04-10 22:10:16 20.9 18 24.2
003C0732 2019-04-10 21:39:09 20.8 18 24.1
003C0732 2019-04-10 21:08:02 20.8 18 24.1
003C0732 2019-04-10 20:36:57 20.8 18 24.1
003C0732 2019-04-10 20:05:50 20.8 18 24.1
003C0732 2019-04-10 19:34:43 20.7 18 23.8
003C0732 2019-04-10 19:03:37 20.7 18 23.8
003C0732 2019-04-10 18:32:31 20.6 18 23.7
003C0732 2019-04-10 18:01:24 20.7 18 23.7
003C0732 2019-04-10 17:30:19 20.7 19 23.6
003C0732 2019-04-10 16:59:13 20.7 19 23.8
003C0732 2019-04-10 16:28:09 20.7 19 23.8
003C0732 2019-04-10 15:57:04 20.8 19 23.9
003C0732 2019-04-10 15:26:00 20.8 19 24.2
003C0732 2019-04-10 14:54:56 20.8 20 24.3
003C0732 2019-04-10 14:23:51 20.8 20 24.4
003C0732 2019-04-10 13:52:44 20.8 20 24.6
003C0732 2019-04-10 13:21:39 20.8 20 24.2
003C0732 2019-04-10 12:50:33 20.7 20 24.5
003C0732 2019-04-10 12:19:25 20.7 20 24.5
003C0732 2019-04-10 11:48:18 20.7 21 24.7
003C0732 2019-04-10 11:17:12 20.6 21 24.8
003C0732 2019-04-10 10:46:07 20.6 21 25.2
003C0732 2019-04-10 10:15:01 20.6 21 25.2
003C0732 2019-04-10 09:43:55 20.6 22 25.1
003C0732 2019-04-10 09:12:50 20.5 22 25.4
003C0732 2019-04-10 08:41:44 20.4 22 25.5
003C0732 2019-04-10 08:10:37 20.5 22 25.6
003C0732 2019-04-10 07:39:32 20.5 23 25.7
003C0732 2019-04-10 07:08:26 20.5 23 25.7
003C0732 2019-04-10 06:37:21 20.5 23 25.7
003C0732 2019-04-10 06:06:16 20.5 23 25.8
003C0732 2019-04-10 05:35:10 20.5 23 25.8
003C0732 2019-04-10 05:04:05 20.4 24 25.9
003C0732 2019-04-10 04:32:59 20.5 24 25.8
003C0732 2019-04-10 04:01:53 20.5 24 25.8
003C0732 2019-04-10 03:30:47 20.5 24 25.8
003C0732 2019-04-10 02:59:42 20.6 25 25.6
003C0732 2019-04-10 02:28:35 20.6 25 25.4
003C0732 2019-04-10 01:57:28 20.6 25 25.4
003C0732 2019-04-10 01:25:48 20.6 25 25.5
003C0732 2019-04-10 00:54:41 20.5 26 25.5
003C0732 2019-04-10 00:23:33 20.6 26 25.4
003C0732 2019-04-09 23:52:25 20.6 26 25.4
003C0732 2019-04-09 23:21:19 20.6 27 25.5
003C0732 2019-04-09 22:50:13 20.6 27 25.4
003C0732 2019-04-09 22:19:05 20.7 27 24.9
003C0732 2019-04-09 21:47:58 20.6 27 24.8
003C0732 2019-04-09 21:16:51 20.6 27 24.7
003C0732 2019-04-09 20:45:43 20.6 27 24.3
003C0732 2019-04-09 20:14:36 20.6 27 24.3
003C0732 2019-04-09 19:43:30 20.6 27 24.2
003C0732 2019-04-09 19:12:23 20.6 27 24.3
003C0732 2019-04-09 18:41:17 20.7 27 24.3
003C0732 2019-04-09 18:10:09 20.7 27 24.4
003C0732 2019-04-09 17:39:02 20.7 27 24.3
003C0732 2019-04-09 17:07:54 20.7 27 24.4
003C0732 2019-04-09 16:36:46 20.7 27 24.4
003C0732 2019-04-09 16:05:39 20.8 27 24.7
003C0732 2019-04-09 15:34:32 20.8 27 24.7
003C0732 2019-04-09 15:03:26 20.8 26 24.9
003C0732 2019-04-09 14:32:20 20.8 26 25
003C0732 2019-04-09 14:01:15 20.8 26 25.1
003C0732 2019-04-09 13:30:10 20.8 26 25
003C0732 2019-04-09 12:59:04 20.8 26 25
003C0732 2019-04-09 12:27:58 20.9 26 24.9
003C0732 2019-04-09 11:56:51 20.9 26 25
003C0732 2019-04-09 11:25:45 20.8 26 25
003C0732 2019-04-09 10:54:39 20.7 26 25
003C0732 2019-04-09 10:23:33 20.7 26 24.9
003C0732 2019-04-09 09:52:26 20.7 26 25
003C0732 2019-04-09 09:21:19 20.7 26 25.2
003C0732 2019-04-09 08:50:12 20.6 25 25.4
003C0732 2019-04-09 08:19:05 20.6 25 25.5
003C0732 2019-04-09 07:47:57 20.6 25 25.6
003C0732 2019-04-09 07:16:49 20.6 25 25.6
003C0732 2019-04-09 06:45:41 20.6 25 25.6
003C0732 2019-04-09 06:14:36 20.6 25 25.6
003C0732 2019-04-09 05:43:31 20.7 25 25.6
003C0732 2019-04-09 05:12:24 20.7 25 25.7
003C0732 2019-04-09 04:41:17 20.7 25 25.7
003C0732 2019-04-09 04:10:10 20.7 25 25.6
003C0732 2019-04-09 03:39:03 20.7 25 25.7
003C0732 2019-04-09 03:07:57 20.7 25 25.6
003C0732 2019-04-09 02:05:44 20.7 25 25.5
003C0732 2019-04-09 01:34:37 20.7 25 25.5
003C0732 2019-04-09 01:03:28 20.7 25 25.4
003C0732 2019-04-09 00:32:19 20.8 26 25.4
003C0732 2019-04-09 00:01:12 20.8 26 25.3
003C0732 2019-04-08 23:29:33 20.8 26 25.4
003C0732 2019-04-08 22:58:25 20.8 26 25.3
003C0732 2019-04-08 22:27:18 20.8 26 25.3
003C0732 2019-04-08 21:56:11 20.8 26 25.3
003C0732 2019-04-08 21:25:03 20.8 26 25.3
003C0732 2019-04-08 20:53:56 20.8 26 25.2
003C0732 2019-04-08 20:22:48 20.9 26 25
003C0732 2019-04-08 19:51:42 20.8 26 24.9
003C0732 2019-04-08 19:20:36 20.8 26 24.9
003C0732 2019-04-08 18:49:29 20.8 26 24.9
003C0732 2019-04-08 18:18:22 20.8 26 24.9
003C0732 2019-04-08 17:47:14 20.8 26 24.8
003C0732 2019-04-08 17:16:07 20.8 26 24.6
003C0732 2019-04-08 16:45:02 20.9 26 24.6
003C0732 2019-04-08 16:13:55 20.9 26 24.7
003C0732 2019-04-08 15:42:49 20.9 26 24.7
003C0732 2019-04-08 15:11:45 20.9 26 24.6
003C0732 2019-04-08 14:40:40 20.9 26 24.6
003C0732 2019-04-08 14:09:35 20.9 26 25.1
003C0732 2019-04-08 13:38:31 21 26 24.9
003C0732 2019-04-08 13:07:25 20.9 26 24.9
003C0732 2019-04-08 12:36:19 20.8 26 25.1
003C0732 2019-04-08 12:05:12 20.7 25 25.1
003C0732 2019-04-08 11:34:07 20.6 25 25.1
003C0732 2019-04-08 11:03:02 20.6 25 25
003C0732 2019-04-08 10:31:56 20.5 25 24.9
003C0732 2019-04-08 10:00:48 20.5 24 24.8
003C0732 2019-04-08 09:29:42 20.4 24 24.8
003C0732 2019-04-08 08:58:34 20.4 24 24.6
003C0732 2019-04-08 08:27:27 20.3 24 24.6
003C0732 2019-04-08 07:56:22 20.3 23 24.6
003C0732 2019-04-08 07:25:15 20.3 23 24.5
003C0732 2019-04-08 06:54:10 20.3 23 24.4
003C0732 2019-04-08 06:23:05 20.3 23 24.2
003C0732 2019-04-08 05:52:02 20.3 23 24
003C0732 2019-04-08 05:20:56 20.4 23 23.9
003C0732 2019-04-08 04:49:50 20.4 23 24
003C0732 2019-04-08 04:18:44 20.4 23 23.9
003C0732 2019-04-08 03:47:39 20.4 23 23.8
003C0732 2019-04-08 03:16:33 20.4 23 23.6
003C0732 2019-04-08 02:45:27 20.5 23 23.4
003C0732 2019-04-08 02:14:21 20.5 23 23.2
003C0732 2019-04-08 01:43:15 20.5 23 23.2
003C0732 2019-04-08 01:12:09 20.5 23 22.7
003C0732 2019-04-08 00:41:01 20.6 23 22.5
003C0732 2019-04-08 00:09:54 20.6 23 22.7
003C0732 2019-04-07 23:38:47 20.6 22 22.4
003C0732 2019-04-07 23:07:41 20.6 22 22.3
003C0732 2019-04-07 22:36:34 20.7 22 22.2
003C0732 2019-04-07 22:05:28 20.8 22 22.1
003C0732 2019-04-07 21:33:47 20.8 22 22.4
003C0732 2019-04-07 21:02:40 20.9 22 22.4
003C0732 2019-04-07 20:31:32 20.9 22 22.5
003C0732 2019-04-07 20:00:26 20.9 22 22.6
003C0732 2019-04-07 19:29:20 20.9 22 22.7
003C0732 2019-04-07 18:58:12 21 22 22.9
003C0732 2019-04-07 18:27:06 20.9 22 23.1
003C0732 2019-04-07 17:56:03 20.9 22 23.3
003C0732 2019-04-07 17:24:58 20.9 22 23.9
003C0732 2019-04-07 16:53:53 20.9 22 24
003C0732 2019-04-07 16:22:48 20.8 22 23.9
003C0732 2019-04-07 15:51:41 20.7 22 24
003C0732 2019-04-07 15:20:34 20.6 22 24
003C0732 2019-04-07 14:49:28 20.5 21 24.2
003C0732 2019-04-07 14:18:21 20.5 21 24.2
003C0732 2019-04-07 13:47:15 20.5 21 24.3
003C0732 2019-04-07 13:16:09 20.4 21 24.2
003C0732 2019-04-07 12:45:02 20.4 21 24
003C0732 2019-04-07 12:13:55 20.4 21 24
003C0732 2019-04-07 11:42:48 20.4 21 23.7
003C0732 2019-04-07 11:11:42 20.4 21 23.8
003C0732 2019-04-07 10:40:36 20.4 21 23.9
003C0732 2019-04-07 10:09:32 20.4 21 24
003C0732 2019-04-07 09:38:27 20.4 21 23.9
003C0732 2019-04-07 09:07:22 20.4 21 24
003C0732 2019-04-07 08:36:16 20.4 21 23.8
003C0732 2019-04-07 08:05:12 20.4 21 23.1
003C0732 2019-04-07 07:34:08 20.5 21 23.2
003C0732 2019-04-07 07:03:05 20.5 21 23.4
003C0732 2019-04-07 06:32:02 20.5 21 23.4
003C0732 2019-04-07 06:00:57 20.5 21 23.4
003C0732 2019-04-07 05:29:51 20.6 21 23.1
003C0732 2019-04-07 04:58:45 20.6 21 22.7
003C0732 2019-04-07 04:27:39 20.7 21 22.6
003C0732 2019-04-07 03:56:34 20.7 21 22.5
003C0732 2019-04-07 03:25:28 20.7 21 22.5
003C0732 2019-04-07 02:54:23 20.8 21 22.3
003C0732 2019-04-07 02:23:18 20.8 21 22.3
003C0732 2019-04-07 01:52:13 20.8 21 22.4
003C0732 2019-04-07 01:21:09 20.9 21 22.4
003C0732 2019-04-07 00:50:04 20.9 21 22.6
003C0732 2019-04-07 00:18:59 21 21 22.7
003C0732 2019-04-06 23:47:53 21 21 22.8
003C0732 2019-04-06 23:16:48 21.1 21 22.8
003C0732 2019-04-06 22:45:42 21.1 21 22.9
003C0732 2019-04-06 22:14:36 21.2 21 22.9
003C0732 2019-04-06 21:43:30 21.2 21 23
003C0732 2019-04-06 21:12:22 21.2 21 23.4
003C0732 2019-04-06 20:41:15 21.3 21 23.3
003C0732 2019-04-06 20:10:08 21.3 21 23.3
003C0732 2019-04-06 19:38:30 21.3 21 23.7
003C0732 2019-04-06 19:07:24 21.3 21 23.9
003C0732 2019-04-06 18:36:19 21.3 21 23.9
003C0732 2019-04-06 18:05:15 21.2 21 24.1
003C0732 2019-04-06 17:34:12 21.2 21 24.3
003C0732 2019-04-06 17:03:07 21.2 21 24.4
003C0732 2019-04-06 16:32:03 21.1 21 24.4
003C0732 2019-04-06 16:00:59 20.9 21 24.3
003C0732 2019-04-06 15:29:54 20.7 21 24.3
003C0732 2019-04-06 14:58:50 20.6 21 24.3
003C0732 2019-04-06 14:27:46 20.6 21 24.4
003C0732 2019-04-06 13:56:40 20.5 21 24.4
003C0732 2019-04-06 13:25:35 20.5 21 24.3
003C0732 2019-04-06 12:54:29 20.5 21 24.2
003C0732 2019-04-06 12:23:24 20.5 20 24.2
003C0732 2019-04-06 11:52:20 20.5 20 24.1
003C0732 2019-04-06 11:21:18 20.5 20 24.1
003C0732 2019-04-06 10:50:13 20.5 20 24.2
003C0732 2019-04-06 10:19:09 20.5 20 24.3
003C0732 2019-04-06 09:48:05 20.5 20 24.3
003C0732 2019-04-06 09:17:01 20.5 20 24.3
003C0732 2019-04-06 08:45:57 20.5 20 24
003C0732 2019-04-06 08:14:53 20.6 20 24.2
003C0732 2019-04-06 07:43:47 20.6 20 24.1
003C0732 2019-04-06 07:12:42 20.6 20 24
003C0732 2019-04-06 06:41:35 20.7 20 23.9
003C0732 2019-04-06 06:10:29 20.7 20 23.7
003C0732 2019-04-06 05:39:24 20.7 20 23.6
003C0732 2019-04-06 05:08:19 20.8 20 23.7
003C0732 2019-04-06 04:37:15 20.8 20 23.4
003C0732 2019-04-06 04:06:10 20.9 20 23.3
003C0732 2019-04-06 03:35:04 20.9 20 23.3
003C0732 2019-04-06 03:03:58 20.9 20 23.2
003C0732 2019-04-06 02:32:52 21 20 23.3
003C0732 2019-04-06 02:01:46 21.1 20 23.1
003C0732 2019-04-06 01:30:39 21.1 19 23.7
003C0732 2019-04-06 00:59:32 21.2 19 23.7
003C0732 2019-04-06 00:28:26 21.3 19 23.7
003C0732 2019-04-05 23:57:20 21.4 19 23.8
003C0732 2019-04-05 23:26:13 21.5 19 23.8
003C0732 2019-04-05 22:55:07 21.6 19 23.7
003C0732 2019-04-05 22:24:02 21.7 19 23.9
003C0732 2019-04-05 21:52:58 21.8 19 23.8
003C0732 2019-04-05 21:21:53 21.9 19 23.7
003C0732 2019-04-05 20:50:47 21.9 19 23.8
003C0732 2019-04-05 20:19:41 21.9 19 23.8
003C0732 2019-04-05 19:48:35 21.9 19 24
003C0732 2019-04-05 19:17:28 21.9 19 23.9
003C0732 2019-04-05 18:46:23 21.8 19 24.5
003C0732 2019-04-05 18:15:17 21.8 18 24.6
003C0732 2019-04-05 17:43:33 21.7 19 24.5
003C0732 2019-04-05 17:12:27 21.8 19 24.6
003C0732 2019-04-05 16:41:21 21.8 20 24.4
003C0732 2019-04-05 16:10:16 21.7 20 24.5
003C0732 2019-04-05 15:39:10 21.6 21 24.7
003C0732 2019-04-05 15:08:05 21.5 21 24.8
003C0732 2019-04-05 14:36:59 21.4 22 24.9
003C0732 2019-04-05 14:05:53 21.3 21 24.9
003C0732 2019-04-05 13:34:47 21.2 21 25
003C0732 2019-04-05 13:03:41 21.2 21 24.6
003C0732 2019-04-05 12:32:34 21.2 22 25.1
003C0732 2019-04-05 12:01:27 21.2 22 25.1
003C0732 2019-04-05 11:30:20 21.2 22 25.1
003C0732 2019-04-05 10:59:12 21.2 22 25.1
003C0732 2019-04-05 10:28:05 21.1 21 25.3
003C0732 2019-04-05 09:57:00 21 20 25.3
003C0732 2019-04-05 09:25:54 21 20 25.3
003C0732 2019-04-05 08:54:47 20.9 19 25.4
003C0732 2019-04-05 08:23:42 20.9 19 25.4
003C0732 2019-04-05 07:52:37 20.9 19 25.3
003C0732 2019-04-05 07:21:32 21 19 25.3
003C0732 2019-04-05 06:50:27 21 19 25.3
003C0732 2019-04-05 06:19:21 21 19 25.1
003C0732 2019-04-05 05:48:16 21 19 25.2
003C0732 2019-04-05 05:17:08 21.1 19 25.2
003C0732 2019-04-05 04:46:01 21.1 19 25.2
003C0732 2019-04-05 04:14:53 21.1 19 25.5
003C0732 2019-04-05 03:43:48 21.1 19 25.6
003C0732 2019-04-05 03:12:43 21.2 19 25.5
003C0732 2019-04-05 02:41:37 21.2 19 25.9
003C0732 2019-04-05 02:10:30 21.2 19 25.6
003C0732 2019-04-05 01:39:24 21.3 19 25.6
003C0732 2019-04-05 01:08:18 21.3 19 25.6
003C0732 2019-04-05 00:37:12 21.4 19 25.6
003C0732 2019-04-05 00:06:05 21.4 19 25.6
003C0732 2019-04-04 23:35:00 21.4 19 25.3
003C0732 2019-04-04 23:03:56 21.5 18 25.4
003C0732 2019-04-04 22:32:51 21.5 18 25.4
003C0732 2019-04-04 22:01:44 21.5 18 25.4
003C0732 2019-04-04 21:30:38 21.5 18 25.2
003C0732 2019-04-04 20:59:32 21.5 18 25.2
003C0732 2019-04-04 20:28:25 21.5 18 25.1
003C0732 2019-04-04 19:57:19 21.5 18 25.1
003C0732 2019-04-04 19:26:12 21.5 17 24.9
003C0732 2019-04-04 18:55:07 21.5 17 25
003C0732 2019-04-04 18:24:01 21.5 17 25.1
003C0732 2019-04-04 17:52:54 21.6 18 25.1
003C0732 2019-04-04 17:21:49 21.6 18 24.9
003C0732 2019-04-04 16:50:41 21.6 18 24.7
003C0732 2019-04-04 16:19:34 21.5 19 24.7
003C0732 2019-04-04 15:47:55 21.4 19 25
003C0732 2019-04-04 15:16:48 21.3 20 25.1
003C0732 2019-04-04 14:45:42 21.2 20 25.1
003C0732 2019-04-04 14:14:35 21.1 20 24.8
003C0732 2019-04-04 13:43:28 21.1 20 24.9
003C0732 2019-04-04 13:12:21 21.1 20 25
003C0732 2019-04-04 12:41:13 21 20 25
003C0732 2019-04-04 12:10:07 21 20 25.1
003C0732 2019-04-04 11:39:00 21 20 25
003C0732 2019-04-04 11:07:54 21 20 25.1
003C0732 2019-04-04 10:36:48 20.9 20 25.2
003C0732 2019-04-04 10:05:41 20.9 20 25.5
003C0732 2019-04-04 09:34:34 21 20 25.5
003C0732 2019-04-04 09:03:27 20.9 20 25.5
003C0732 2019-04-04 08:32:21 20.9 20 25.6
003C0732 2019-04-04 08:01:14 20.9 20 25.5
003C0732 2019-04-04 07:30:10 20.9 20 25.6
003C0732 2019-04-04 06:59:01 21 20 25.6
003C0732 2019-04-04 06:27:54 21 20 25.4
003C0732 2019-04-04 05:56:47 21 20 25.2
003C0732 2019-04-04 05:25:39 21 20 25.1
003C0732 2019-04-04 04:54:32 21.1 20 25
003C0732 2019-04-04 04:23:23 21.1 20 25
003C0732 2019-04-04 03:52:14 21.1 20 24.9
003C0732 2019-04-04 03:21:06 21.2 19 24.5
003C0732 2019-04-04 02:49:59 21.2 19 24.5
003C0732 2019-04-04 02:18:51 21.2 19 24.2
003C0732 2019-04-04 01:47:45 21.3 19 24.3
003C0732 2019-04-04 01:16:39 21.3 19 24.2
003C0732 2019-04-04 00:45:31 21.3 19 24.2
003C0732 2019-04-04 00:14:24 21.4 19 24.5
003C0732 2019-04-03 23:43:16 21.5 19 24.4
003C0732 2019-04-03 23:12:07 21.5 19 24.2
003C0732 2019-04-03 22:41:00 21.6 19 24.3
003C0732 2019-04-03 22:09:54 21.6 19 24.1
003C0732 2019-04-03 21:38:49 21.6 19 24.2
003C0732 2019-04-03 21:07:42 21.7 19 23.7
003C0732 2019-04-03 20:36:37 21.7 19 23.7
003C0732 2019-04-03 20:05:31 21.7 19 23.9
003C0732 2019-04-03 19:34:23 21.7 19 23.8
003C0732 2019-04-03 19:03:17 21.7 18 24
003C0732 2019-04-03 18:32:09 21.7 18 23.9
003C0732 2019-04-03 18:01:01 21.8 19 24.1
003C0732 2019-04-03 17:29:53 21.9 19 24.7
003C0732 2019-04-03 16:58:46 21.9 20 24.8
003C0732 2019-04-03 16:27:38 21.8 20 24.9
003C0732 2019-04-03 15:56:31 21.7 20 25.1
003C0732 2019-04-03 15:25:23 21.5 21 25.1
003C0732 2019-04-03 14:54:16 21.4 21 25.3
003C0732 2019-04-03 14:23:10 21.5 20 25.4
003C0732 2019-04-03 14:21:58 21.3 21 25.3
003C0732 2019-04-03 13:50:52 21.2 21 25.4
003C0732 2019-04-03 13:19:46 21.1 21 25.4
003C0732 2019-04-03 12:48:40 21.1 20 25.4
003C0732 2019-04-03 12:17:34 21.1 20 25.3
003C0732 2019-04-03 11:46:27 21.1 21 25.2
003C0732 2019-04-03 11:15:21 21.1 20 25.2
003C0732 2019-04-03 10:44:14 21 21 25.2
003C0732 2019-04-03 10:13:08 21 21 25.2
003C0732 2019-04-03 09:42:02 20.9 21 25.2
003C0732 2019-04-03 09:10:55 20.8 20 25
003C0732 2019-04-03 08:39:48 20.7 19 25
003C0732 2019-04-03 08:08:42 20.7 19 25.1
003C0732 2019-04-03 07:37:35 20.8 20 24.9
003C0732 2019-04-03 07:06:28 20.8 20 24.9
003C0732 2019-04-03 06:35:23 20.8 19 25
003C0732 2019-04-03 06:04:17 20.8 19 24.9
003C0732 2019-04-03 05:33:12 20.8 19 24.4
003C0732 2019-04-03 05:02:07 20.8 19 24.5
003C0732 2019-04-03 04:31:02 20.8 19 24.5
003C0732 2019-04-03 03:59:56 20.9 19 24.3
003C0732 2019-04-03 03:28:49 20.9 19 24.2
003C0732 2019-04-03 02:57:42 20.9 19 23.9
003C0732 2019-04-03 02:26:35 20.9 19 23.8
003C0732 2019-04-03 01:55:25 21 19 23.7
003C0732 2019-04-03 01:24:17 21 19 23.7
003C0732 2019-04-03 00:53:09 21 19 23.5
003C0732 2019-04-03 00:22:02 21.1 19 24
003C0732 2019-04-02 23:50:54 21.1 18 24.2
003C0732 2019-04-02 23:19:45 21.2 18 24.1
003C0732 2019-04-02 22:48:37 21.2 18 24.6
003C0732 2019-04-02 22:17:28 21.2 18 24.6
003C0732 2019-04-02 21:46:19 21.3 18 24.6
003C0732 2019-04-02 21:15:11 21.3 18 24.7
003C0732 2019-04-02 20:44:04 21.3 18 24.8
003C0732 2019-04-02 20:12:56 21.4 18 24.7
003C0732 2019-04-02 19:41:48 21.4 18 24.7
003C0732 2019-04-02 19:10:40 21.3 18 24.6
003C0732 2019-04-02 18:39:32 21.4 17 24.6
003C0732 2019-04-02 18:08:24 21.4 17 24.6
003C0732 2019-04-02 17:37:16 21.5 17 24.5
003C0732 2019-04-02 17:06:09 21.5 18 24.5
003C0732 2019-04-02 16:35:02 21.6 19 24.5
003C0732 2019-04-02 16:03:54 21.6 20 24.4
003C0732 2019-04-02 15:32:45 21.4 21 24.5
003C0732 2019-04-02 15:01:40 21.2 22 25
003C0732 2019-04-02 14:30:35 21.1 23 25.1
003C0732 2019-04-02 13:59:30 20.9 23 25
003C0732 2019-04-02 13:28:26 20.9 23 25.1
003C0732 2019-04-02 12:57:20 20.8 23 25.1
003C0732 2019-04-02 12:25:41 20.8 23 25.3
003C0732 2019-04-02 11:54:34 20.8 22 24.8
003C0732 2019-04-02 11:23:29 20.8 22 24.7
003C0732 2019-04-02 10:52:23 20.8 22 24.8
003C0732 2019-04-02 10:21:17 20.8 22 24.3
003C0732 2019-04-02 09:50:12 20.7 21 24.3
003C0732 2019-04-02 09:19:07 20.7 21 24.7
003C0732 2019-04-02 08:48:02 20.7 20 24.7
003C0732 2019-04-02 08:16:56 20.6 20 24.6
003C0732 2019-04-02 07:45:49 20.6 20 24.6
003C0732 2019-04-02 07:14:43 20.6 19 24.6
003C0732 2019-04-02 06:43:36 20.7 19 24.6
003C0732 2019-04-02 06:12:30 20.7 19 24.6
003C0732 2019-04-02 05:41:24 20.7 19 24.5
003C0732 2019-04-02 05:10:18 20.7 19 24.6
003C0732 2019-04-02 04:39:13 20.7 19 24.5
003C0732 2019-04-02 04:08:08 20.8 19 24.5
003C0732 2019-04-02 03:37:03 20.8 19 24.4
003C0732 2019-04-02 03:05:59 20.8 18 24.2
003C0732 2019-04-02 02:34:54 20.8 18 24
003C0732 2019-04-02 02:03:49 20.9 18 24
003C0732 2019-04-02 01:32:43 20.9 18 24
003C0732 2019-04-02 01:01:39 20.9 18 23.8
003C0732 2019-04-02 00:30:33 21 17 23.8
003C0732 2019-04-01 23:59:27 21 17 23.6
003C0732 2019-04-01 23:28:22 21 17 23.3
003C0732 2019-04-01 22:57:16 21.1 17 23.2
003C0732 2019-04-01 22:26:10 21.1 17 23.1
003C0732 2019-04-01 21:55:05 21.1 17 22.9
003C0732 2019-04-01 21:24:00 21.1 17 23.2
003C0732 2019-04-01 20:52:55 21.2 16 23.3
003C0732 2019-04-01 20:21:48 21.2 16 22.5
003C0732 2019-04-01 19:50:40 21.2 16 22.7
003C0732 2019-04-01 19:19:34 21.2 16 22.9
003C0732 2019-04-01 18:48:29 21.1 16 23
003C0732 2019-04-01 18:17:23 21.2 16 23
003C0732 2019-04-01 17:46:17 21.2 16 22.9
003C0732 2019-04-01 17:15:12 21.2 16 23
003C0732 2019-04-01 16:44:06 21.1 17 23.2
003C0732 2019-04-01 16:13:01 21 17 23.3
003C0732 2019-04-01 15:41:54 20.9 17 23.5
003C0732 2019-04-01 15:10:47 20.8 18 23.7
003C0732 2019-04-01 14:39:41 20.6 19 23.7
003C0732 2019-04-01 14:08:33 20.6 19 23.9
003C0732 2019-04-01 13:37:26 20.6 19 23.6
003C0732 2019-04-01 13:06:19 20.6 20 23.7
003C0732 2019-04-01 12:35:15 20.5 20 23.9
003C0732 2019-04-01 12:04:08 20.6 21 24
003C0732 2019-04-01 11:33:01 20.6 21 24.1
003C0732 2019-04-01 11:01:56 20.5 21 24.2
003C0732 2019-04-01 10:30:18 20.5 21 24.4
003C0732 2019-04-01 09:59:13 20.5 22 25
003C0732 2019-04-01 09:28:08 20.5 22 25
003C0732 2019-04-01 08:57:03 20.4 22 24.9
003C0732 2019-04-01 08:25:59 20.4 22 24.8
003C0732 2019-04-01 07:54:55 20.4 22 24.8
003C0732 2019-04-01 07:23:50 20.4 22 24.7
003C0732 2019-04-01 06:52:45 20.4 23 24.7
003C0732 2019-04-01 06:21:40 20.5 23 24.7
003C0732 2019-04-01 05:50:34 20.4 23 24.7
003C0732 2019-04-01 05:19:27 20.4 23 24.6
003C0732 2019-04-01 04:48:22 20.4 23 24.6
003C0732 2019-04-01 04:17:16 20.4 23 24.5
003C0732 2019-04-01 03:46:10 20.5 23 24.4
003C0732 2019-04-01 03:15:03 20.5 23 24.5
003C0732 2019-04-01 02:43:56 20.5 23 24.5
003C0732 2019-04-01 02:12:49 20.5 23 24.5
003C0732 2019-04-01 01:41:42 20.5 23 24.6
003C0732 2019-04-01 01:10:35 20.5 24 24.6
003C0732 2019-04-01 00:39:28 20.6 24 24.5
003C0732 2019-04-01 00:08:20 20.6 24 24.5
003C0732 2019-03-31 23:37:11 20.6 24 24.5
003C0732 2019-03-31 23:06:05 20.7 25 24.5
003C0732 2019-03-31 22:34:59 20.7 25 24.7
003C0732 2019-03-31 22:03:53 20.7 25 24.7
003C0732 2019-03-31 21:32:47 20.8 26 24.7
003C0732 2019-03-31 21:01:41 20.8 26 24.2
003C0732 2019-03-31 20:30:33 20.8 27 24.1
003C0732 2019-03-31 19:59:25 20.8 27 24.2
003C0732 2019-03-31 19:28:18 20.8 27 24
003C0732 2019-03-31 18:57:11 20.8 27 24.2
003C0732 2019-03-31 18:26:04 20.7 27 24.2
003C0732 2019-03-31 17:54:57 20.7 27 24.2
003C0732 2019-03-31 17:23:50 20.6 28 24.2
003C0732 2019-03-31 16:52:43 20.6 27 24.2
003C0732 2019-03-31 16:21:36 20.6 27 24.3
003C0732 2019-03-31 15:50:29 20.6 27 24.4
003C0732 2019-03-31 15:19:22 20.5 27 24.5
003C0732 2019-03-31 14:48:12 20.6 27 24.5
003C0732 2019-03-31 14:17:04 20.6 27 24.5
003C0732 2019-03-31 13:45:56 20.6 27 24.5
003C0732 2019-03-31 13:14:49 20.6 27 24.5
003C0732 2019-03-31 12:43:41 20.6 27 24.5
003C0732 2019-03-31 12:12:32 20.6 27 24.4
003C0732 2019-03-31 11:41:24 20.5 27 24.6
003C0732 2019-03-31 11:10:16 20.5 27 24.3
003C0732 2019-03-31 10:39:09 20.5 27 24.4
003C0732 2019-03-31 10:08:03 20.5 27 24.4
003C0732 2019-03-31 09:36:54 20.5 27 24.3
003C0732 2019-03-31 09:05:47 20.5 27 24.4
003C0732 2019-03-31 08:34:06 20.5 27 24.6
003C0732 2019-03-31 08:02:58 20.5 28 24.7
003C0732 2019-03-31 07:31:49 20.6 28 24.8
003C0732 2019-03-31 07:00:42 20.6 28 24.9
003C0732 2019-03-31 06:29:34 20.6 28 24.9
003C0732 2019-03-31 05:58:27 20.5 28 24.9
003C0732 2019-03-31 05:27:21 20.6 28 24.8
003C0732 2019-03-31 04:56:14 20.6 28 25
003C0732 2019-03-31 04:25:07 20.6 28 24.9
003C0732 2019-03-31 02:53:59 20.6 28 24.9
003C0732 2019-03-31 02:22:53 20.6 27 24.9
003C0732 2019-03-31 01:51:46 20.6 27 24.7
003C0732 2019-03-31 01:20:39 20.6 27 24.6
003C0732 2019-03-31 00:49:31 20.6 27 24.5
003C0732 2019-03-31 00:18:23 20.6 27 24.6
003C0732 2019-03-30 23:47:16 20.7 27 24.5
003C0732 2019-03-30 23:16:09 20.7 27 24.5
003C0732 2019-03-30 22:45:04 20.7 27 24.4
003C0732 2019-03-30 22:13:58 20.7 27 24.4
003C0732 2019-03-30 21:42:51 20.8 27 24.5
003C0732 2019-03-30 21:11:43 20.8 27 24.4
003C0732 2019-03-30 20:40:35 20.8 27 24.6
003C0732 2019-03-30 20:09:28 20.8 27 24.5
003C0732 2019-03-30 19:38:21 20.9 27 24.3
003C0732 2019-03-30 19:07:14 20.9 27 24.5
003C0732 2019-03-30 18:36:08 20.9 27 24.3
003C0732 2019-03-30 18:05:02 20.9 27 24.1
003C0732 2019-03-30 17:33:56 21 27 24
003C0732 2019-03-30 17:02:50 21 27 24
003C0732 2019-03-30 16:31:44 21 27 24
003C0732 2019-03-30 16:00:37 21 27 23.9
003C0732 2019-03-30 15:29:29 20.9 27 24
003C0732 2019-03-30 14:58:22 20.9 27 24
003C0732 2019-03-30 14:27:16 20.9 27 24.2
003C0732 2019-03-30 13:56:09 20.8 27 24.2
003C0732 2019-03-30 13:25:04 20.8 27 24.1
003C0732 2019-03-30 12:53:58 20.8 27 24.1
003C0732 2019-03-30 12:22:52 20.7 27 24.2
003C0732 2019-03-30 11:51:47 20.7 27 24.3
003C0732 2019-03-30 11:20:41 20.7 27 24.3
003C0732 2019-03-30 10:49:36 20.7 27 24.4
003C0732 2019-03-30 10:18:31 20.7 27 24.4
003C0732 2019-03-30 09:47:26 20.6 27 24.4
003C0732 2019-03-30 09:16:20 20.6 27 24.4
003C0732 2019-03-30 08:45:14 20.6 27 24.3
003C0732 2019-03-30 08:14:07 20.6 27 24.3
003C0732 2019-03-30 07:43:00 20.6 27 24
003C0732 2019-03-30 07:11:53 20.6 27 24
003C0732 2019-03-30 06:40:46 20.7 27 24.3
003C0732 2019-03-30 06:09:38 20.7 27 24
003C0732 2019-03-30 05:37:56 20.7 27 24.2
003C0732 2019-03-30 05:06:50 20.7 27 24
003C0732 2019-03-30 04:35:43 20.7 27 24.1
003C0732 2019-03-30 04:04:37 20.7 27 24.1
003C0732 2019-03-30 03:33:31 20.7 27 24.1
003C0732 2019-03-30 03:02:25 20.7 28 24.1
003C0732 2019-03-30 02:31:20 20.8 28 23.8
003C0732 2019-03-30 02:00:13 20.8 28 23.6
003C0732 2019-03-30 01:29:07 20.8 28 23.8
003C0732 2019-03-30 00:58:01 20.9 28 23.7
003C0732 2019-03-30 00:26:54 20.9 28 23.7
003C0732 2019-03-29 23:55:47 20.9 28 23.5
003C0732 2019-03-29 23:24:40 20.9 28 23.3
003C0732 2019-03-29 22:53:33 21 28 23.3
003C0732 2019-03-29 22:22:28 21 28 23.3
003C0732 2019-03-29 21:51:23 21 28 23.2
003C0732 2019-03-29 21:20:19 21 29 23.1
003C0732 2019-03-29 20:49:14 21 28 23.1
003C0732 2019-03-29 20:18:09 21 28 23.2
003C0732 2019-03-29 19:47:05 21 28 23.2
003C0732 2019-03-29 19:15:59 21 28 23.5
003C0732 2019-03-29 18:44:54 21 28 23.4
003C0732 2019-03-29 18:13:49 21 28 23.4
003C0732 2019-03-29 17:42:43 21 28 23.4
003C0732 2019-03-29 17:11:37 21.1 28 23.4
003C0732 2019-03-29 16:40:31 21.1 28 23.2
003C0732 2019-03-29 16:09:26 21.1 28 23.3
003C0732 2019-03-29 15:38:22 21.1 28 23.4
003C0732 2019-03-29 15:07:16 21.1 28 23.2
003C0732 2019-03-29 14:36:11 21.1 28 23.3
003C0732 2019-03-29 14:05:06 21.1 28 23.3
003C0732 2019-03-29 13:34:02 21 28 23.5
003C0732 2019-03-29 13:02:57 21 28 23.4
003C0732 2019-03-29 12:31:52 21 27 23.2
003C0732 2019-03-29 12:00:47 21 27 23.5
003C0732 2019-03-29 11:29:45 21 27 23.6
003C0732 2019-03-29 10:58:39 21 27 23.7
003C0732 2019-03-29 10:27:33 21 27 23.8
003C0732 2019-03-29 09:56:28 20.9 27 23.6
003C0732 2019-03-29 09:25:24 20.8 26 23.6
003C0732 2019-03-29 08:54:19 20.8 26 23.5
003C0732 2019-03-29 08:23:14 20.8 26 23.6
003C0732 2019-03-29 07:52:09 20.7 25 23.7
003C0732 2019-03-29 07:21:03 20.7 25 24.3
003C0732 2019-03-29 06:49:58 20.7 25 24.4
003C0732 2019-03-29 06:18:53 20.7 25 24.3
003C0732 2019-03-29 05:47:47 20.7 25 24.4
003C0732 2019-03-29 05:16:43 20.8 25 24.2
003C0732 2019-03-29 04:45:39 20.8 25 24.3
003C0732 2019-03-29 04:14:34 20.8 25 24.8
003C0732 2019-03-29 03:42:56 20.9 25 24.8
003C0732 2019-03-29 03:11:51 20.9 25 24.7
003C0732 2019-03-29 02:40:47 21 25 24.8
003C0732 2019-03-29 02:09:42 21 25 24.8
003C0732 2019-03-29 01:38:37 21 25 24.9
003C0732 2019-03-29 01:07:32 21.1 25 24.8
003C0732 2019-03-29 00:36:27 21 25 24.8
003C0732 2019-03-29 00:05:22 21.1 25 24.7
003C0732 2019-03-28 23:34:17 21.1 25 24.5
003C0732 2019-03-28 23:03:12 21.1 25 24.5
003C0732 2019-03-28 22:32:06 21.1 25 24.5
003C0732 2019-03-28 22:01:00 21.1 25 24.4
003C0732 2019-03-28 21:29:55 21.1 24 24.6
003C0732 2019-03-28 20:58:50 21.2 24 24.5
003C0732 2019-03-28 20:27:46 21.1 24 24.7
003C0732 2019-03-28 19:56:41 21.1 24 24.8
003C0732 2019-03-28 19:25:37 21.1 24 24.8
003C0732 2019-03-28 18:54:33 21.1 24 24.3
003C0732 2019-03-28 18:23:28 21.1 24 24.1
003C0732 2019-03-28 17:52:24 21.1 24 24.2
003C0732 2019-03-28 17:21:18 21.2 24 24.3
003C0732 2019-03-28 16:50:14 21.2 24 24.5
003C0732 2019-03-28 16:19:10 21.2 24 24.5
003C0732 2019-03-28 15:48:07 21.1 23 24.1
003C0732 2019-03-28 15:16:59 21.2 23 24.3
003C0732 2019-03-28 14:45:54 21.1 23 24.2
003C0732 2019-03-28 14:14:50 21 23 24.3
003C0732 2019-03-28 13:43:46 21 23 24.2
003C0732 2019-03-28 13:12:40 21 23 24.1
003C0732 2019-03-28 12:41:36 20.9 22 24.1
003C0732 2019-03-28 12:10:31 20.9 22 24.6
003C0732 2019-03-28 11:39:28 20.9 22 24.7
003C0732 2019-03-28 11:08:23 20.9 21 25
003C0732 2019-03-28 10:37:18 20.8 21 25
003C0732 2019-03-28 10:06:13 20.8 21 25.1
003C0732 2019-03-28 09:35:08 20.8 20 25.1
003C0732 2019-03-28 09:04:03 20.8 20 25.1
003C0732 2019-03-28 08:32:56 20.8 20 25.1
003C0732 2019-03-28 08:01:50 20.7 20 25.3
003C0732 2019-03-28 07:30:45 20.7 19 25.3
003C0732 2019-03-28 06:59:38 20.7 19 25.2
003C0732 2019-03-28 06:28:32 20.7 19 25.3
003C0732 2019-03-28 05:57:25 20.7 19 25.2
003C0732 2019-03-28 05:26:17 20.7 19 25.3
003C0732 2019-03-28 04:55:09 20.7 19 25.1
003C0732 2019-03-28 04:24:02 20.7 19 25
003C0732 2019-03-28 03:52:57 20.7 19 24.9
003C0732 2019-03-28 03:21:50 20.7 19 24.9
003C0732 2019-03-28 02:50:44 20.7 19 24.7
003C0732 2019-03-28 02:19:37 20.8 18 24.7
003C0732 2019-03-28 01:47:56 20.8 18 24.7
003C0732 2019-03-28 01:16:50 20.8 18 25.1
003C0732 2019-03-28 00:45:43 20.8 18 25.6
003C0732 2019-03-28 00:14:36 20.8 17 25.5
003C0732 2019-03-27 23:43:28 20.9 17 25.5
003C0732 2019-03-27 23:12:22 20.9 17 25.5
003C0732 2019-03-27 22:41:16 20.9 17 25.4
003C0732 2019-03-27 22:10:09 20.9 16 25.3
003C0732 2019-03-27 21:39:03 20.9 16 25.4
003C0732 2019-03-27 21:07:57 21 16 25.4
003C0732 2019-03-27 20:36:50 21 16 25.3
003C0732 2019-03-27 20:05:45 21 16 25.3
003C0732 2019-03-27 19:34:38 21.1 15 25.2
003C0732 2019-03-27 19:03:31 21.1 15 25.2
003C0732 2019-03-27 18:32:24 21.2 15 25.2
003C0732 2019-03-27 18:01:16 21.2 15 25
003C0732 2019-03-27 17:30:08 21.3 15 25
003C0732 2019-03-27 16:59:02 21.3 16 25.1
003C0732 2019-03-27 16:27:52 21.4 16 25.1
003C0732 2019-03-27 15:56:44 21.3 16 25.1
003C0732 2019-03-27 15:25:36 21.3 16 25.2
003C0732 2019-03-27 14:54:28 21.2 16 25.2
003C0732 2019-03-27 14:23:20 21 16 25.1
003C0732 2019-03-27 13:52:13 20.9 16 25
003C0732 2019-03-27 13:21:06 20.9 16 24.9
003C0732 2019-03-27 12:49:58 20.8 15 24.8
003C0732 2019-03-27 12:18:49 20.8 15 24.3
003C0732 2019-03-27 11:47:41 20.8 15 23.7
003C0732 2019-03-27 11:16:33 20.7 15 24.3
003C0732 2019-03-27 10:45:25 20.7 14 23.7
003C0732 2019-03-27 10:14:19 20.7 14 23.6
003C0732 2019-03-27 09:43:13 20.6 14 23.6
003C0732 2019-03-27 09:12:06 20.6 14 23.6
003C0732 2019-03-27 08:40:59 20.5 14 23.4
003C0732 2019-03-27 08:09:52 20.6 14 23.3
003C0732 2019-03-27 07:38:46 20.6 14 23.4
003C0732 2019-03-27 07:07:40 20.6 14 23.4
003C0732 2019-03-27 06:36:34 20.6 14 23.2
003C0732 2019-03-27 06:05:29 20.6 14 23.2
003C0732 2019-03-27 05:34:22 20.6 14 23.1
003C0732 2019-03-27 05:03:14 20.6 14 23.1
003C0732 2019-03-27 04:32:06 20.6 14 23.2
003C0732 2019-03-27 04:01:00 20.6 14 22.9
003C0732 2019-03-27 03:29:54 20.6 14 22.9
003C0732 2019-03-27 02:58:47 20.7 14 22.7
003C0732 2019-03-27 02:27:40 20.7 14 22.5
003C0732 2019-03-27 01:56:34 20.7 14 22.5
003C0732 2019-03-27 01:25:28 20.7 14 22.6
003C0732 2019-03-27 00:54:23 20.8 13 22.7
003C0732 2019-03-27 00:23:16 20.9 13 22.7
003C0732 2019-03-26 23:51:37 20.9 13 22.6
003C0732 2019-03-26 23:20:31 20.9 13 22.8
003C0732 2019-03-26 22:49:24 20.9 13 21.8
003C0732 2019-03-26 22:18:18 21 13 21.8
003C0732 2019-03-26 21:47:11 21 13 21.9
003C0732 2019-03-26 21:16:05 21.1 13 21.9
003C0732 2019-03-26 20:44:58 21.1 13 22.2
003C0732 2019-03-26 20:13:49 21.1 13 22.2
003C0732 2019-03-26 19:42:41 21.1 13 22.2
003C0732 2019-03-26 19:11:34 21.2 13 22
003C0732 2019-03-26 18:40:25 21.2 12 21.9
003C0732 2019-03-26 18:09:16 21.3 13 22.1
003C0732 2019-03-26 17:38:07 21.4 13 21.9
003C0732 2019-03-26 17:06:59 21.4 13 22.2
003C0732 2019-03-26 16:35:52 21.4 13 22.4
003C0732 2019-03-26 16:04:45 21.4 14 22.4
003C0732 2019-03-26 15:33:38 21.3 14 22.4
003C0732 2019-03-26 15:02:31 21.1 14 22.5
003C0732 2019-03-26 14:31:25 21 14 22.5
003C0732 2019-03-26 14:00:19 20.9 15 23.3
003C0732 2019-03-26 13:29:12 20.8 15 23.3
003C0732 2019-03-26 12:58:06 20.6 15 23.2
003C0732 2019-03-26 12:27:01 20.6 15 23.9
003C0732 2019-03-26 11:55:55 20.5 15 23.9
003C0732 2019-03-26 11:24:48 20.5 16 24
003C0732 2019-03-26 10:53:43 20.5 16 24.1
003C0732 2019-03-26 10:22:38 20.5 17 24
003C0732 2019-03-26 09:51:32 20.5 17 24
003C0732 2019-03-26 09:20:28 20.5 18 24.6
003C0732 2019-03-26 08:49:22 20.5 19 24.5
003C0732 2019-03-26 08:18:16 20.5 19 24.9
003C0732 2019-03-26 07:47:10 20.5 19 24.9
003C0732 2019-03-26 07:16:03 20.5 20 24.9
003C0732 2019-03-26 06:44:56 20.5 20 24.9
003C0732 2019-03-26 06:13:48 20.5 20 24.9
003C0732 2019-03-26 05:42:40 20.5 20 24.9
003C0732 2019-03-26 05:11:32 20.5 20 24.8
003C0732 2019-03-26 04:40:26 20.5 20 24.8
003C0732 2019-03-26 04:09:20 20.6 20 24.6
003C0732 2019-03-26 03:38:16 20.5 20 24.8
003C0732 2019-03-26 03:07:09 20.5 20 24.8
003C0732 2019-03-26 02:36:05 20.5 20 24.7
003C0732 2019-03-26 02:04:59 20.6 20 24.7
003C0732 2019-03-26 01:33:53 20.6 20 24.8
003C0732 2019-03-26 01:02:49 20.6 20 24.3
003C0732 2019-03-26 00:31:44 20.6 20 24.2
003C0732 2019-03-26 00:00:40 20.6 20 24.1
003C0732 2019-03-25 23:29:34 20.7 20 23.4
003C0732 2019-03-25 22:58:28 20.7 20 23.5
003C0732 2019-03-25 22:27:20 20.8 20 23.5
003C0732 2019-03-25 21:55:41 20.8 20 23.7
003C0732 2019-03-25 21:24:35 20.8 20 23.9
003C0732 2019-03-25 20:53:29 20.8 20 23.4
003C0732 2019-03-25 20:22:22 20.8 20 23.4
003C0732 2019-03-25 19:51:16 20.9 20 22.5
003C0732 2019-03-25 19:20:10 20.9 19 22.6
003C0732 2019-03-25 18:49:04 20.9 19 22.7
003C0732 2019-03-25 18:17:58 20.9 20 22.6
003C0732 2019-03-25 17:46:51 21 20 22.6
003C0732 2019-03-25 17:15:45 21 22 23
003C0732 2019-03-25 16:44:36 21 22 23.3
003C0732 2019-03-25 16:13:28 21 23 23.4
003C0732 2019-03-25 15:42:20 21 23 23.5
003C0732 2019-03-25 15:11:11 21 23 23.4
003C0732 2019-03-25 14:40:03 21 24 23.5
003C0732 2019-03-25 14:08:56 21 24 23.7
003C0732 2019-03-25 13:37:49 20.9 24 23.8
003C0732 2019-03-25 13:06:43 20.8 24 23.9
003C0732 2019-03-25 12:35:36 20.7 23 23.9
003C0732 2019-03-25 12:04:29 20.7 23 23.9
003C0732 2019-03-25 11:33:22 20.7 24 24.2
003C0732 2019-03-25 11:02:16 20.6 24 24.3
003C0732 2019-03-25 10:31:11 20.5 24 24.4
003C0732 2019-03-25 10:00:06 20.4 24 24.5
003C0732 2019-03-25 09:28:59 20.2 23 24.6
003C0732 2019-03-25 08:57:53 20.2 23 24.6
003C0732 2019-03-25 08:26:47 20.2 23 24.5
003C0732 2019-03-25 07:55:42 20.2 23 24.3
003C0732 2019-03-25 07:24:36 20.2 23 24.4
003C0732 2019-03-25 06:53:31 20.2 23 24.7
003C0732 2019-03-25 06:22:25 20.2 23 24.6
003C0732 2019-03-25 05:51:19 20.2 23 24.7
003C0732 2019-03-25 05:20:15 20.2 23 24.7
003C0732 2019-03-25 04:49:10 20.2 23 24.7
003C0732 2019-03-25 04:18:05 20.2 23 24.5
003C0732 2019-03-25 03:47:02 20.3 23 24.5
003C0732 2019-03-25 03:15:57 20.3 23 24.6
003C0732 2019-03-25 02:44:53 20.3 23 24.6
003C0732 2019-03-25 02:13:47 20.3 23 24.4
003C0732 2019-03-25 01:42:42 20.4 23 24.3
003C0732 2019-03-25 01:11:35 20.4 23 24.3
003C0732 2019-03-25 00:40:29 20.4 23 24.3
003C0732 2019-03-25 00:09:21 20.5 23 24.3
003C0732 2019-03-24 23:38:14 20.5 23 24.4
003C0732 2019-03-24 23:07:07 20.6 23 24.7
003C0732 2019-03-24 22:35:59 20.6 23 24.5
003C0732 2019-03-24 22:04:52 20.7 23 24.5
003C0732 2019-03-24 21:33:45 20.7 23 24.6
003C0732 2019-03-24 21:02:39 20.8 23 24.5
003C0732 2019-03-24 20:31:33 20.8 23 24.3
003C0732 2019-03-24 19:59:53 20.9 23 24.5
003C0732 2019-03-24 19:28:47 20.9 23 24.5
003C0732 2019-03-24 18:57:41 20.9 23 24.5
003C0732 2019-03-24 18:26:37 20.9 23 24.4
003C0732 2019-03-24 17:55:31 21 23 24.3
003C0732 2019-03-24 17:24:24 20.9 23 24.3
003C0732 2019-03-24 16:53:16 20.9 23 24.4
003C0732 2019-03-24 16:22:09 20.9 23 24.6
003C0732 2019-03-24 15:51:03 20.8 24 24.6
003C0732 2019-03-24 15:19:56 20.6 24 24.5
003C0732 2019-03-24 14:48:52 20.4 24 24.3
003C0732 2019-03-24 14:17:48 20.3 24 24.2
003C0732 2019-03-24 13:46:42 20.2 23 24.3
003C0732 2019-03-24 13:15:36 20.2 23 24.4
003C0732 2019-03-24 12:44:29 20.2 23 24.4
003C0732 2019-03-24 12:13:23 20.2 23 24.2
003C0732 2019-03-24 11:42:17 20.2 23 24.1
003C0732 2019-03-24 11:11:11 20.2 23 24.1
003C0732 2019-03-24 10:40:05 20.2 23 23.9
003C0732 2019-03-24 10:09:00 20.2 23 24
003C0732 2019-03-24 09:37:55 20.2 23 24.1
003C0732 2019-03-24 09:06:50 20.2 23 24
003C0732 2019-03-24 08:35:43 20.1 23 24
003C0732 2019-03-24 08:04:36 20.2 23 24.1
003C0732 2019-03-24 07:33:29 20.2 23 24.1
003C0732 2019-03-24 07:02:23 20.2 23 24
003C0732 2019-03-24 06:31:18 20.1 23 24
003C0732 2019-03-24 06:00:11 20.2 23 24
003C0732 2019-03-24 05:29:06 20.2 23 24
003C0732 2019-03-24 04:58:01 20.2 23 24.1
003C0732 2019-03-24 04:26:54 20.2 23 24
003C0732 2019-03-24 03:55:49 20.2 23 23.9
003C0732 2019-03-24 03:24:43 20.2 23 23.7
003C0732 2019-03-24 02:53:36 20.2 23 23.7
003C0732 2019-03-24 02:22:29 20.2 23 23.6
003C0732 2019-03-24 01:51:21 20.2 23 23.7
003C0732 2019-03-24 01:20:13 20.2 23 23.6
003C0732 2019-03-24 00:49:07 20.2 23 23.5
003C0732 2019-03-24 00:18:02 20.2 23 23.6
003C0732 2019-03-23 23:46:56 20.2 23 23.4
003C0732 2019-03-23 23:15:51 20.2 23 23.5
003C0732 2019-03-23 22:44:44 20.2 22 23.6
003C0732 2019-03-23 22:13:38 20.2 22 23.6
003C0732 2019-03-23 21:42:33 20.2 22 23.6
003C0732 2019-03-23 21:11:26 20.2 22 23.5
003C0732 2019-03-23 20:40:22 20.3 22 23.4
003C0732 2019-03-23 20:09:16 20.3 22 23.4
003C0732 2019-03-23 19:38:10 20.3 22 23.4
003C0732 2019-03-23 19:07:04 20.3 22 23.4
003C0732 2019-03-23 18:35:56 20.3 22 23.4
003C0732 2019-03-23 18:04:16 20.3 22 24.1
003C0732 2019-03-23 17:33:10 20.3 21 24
003C0732 2019-03-23 17:02:04 20.3 21 24
003C0732 2019-03-23 16:30:58 20.3 21 23.9
003C0732 2019-03-23 15:59:53 20.3 21 23.9
003C0732 2019-03-23 15:28:48 20.3 21 23.8
003C0732 2019-03-23 14:57:42 20.3 21 23.8
003C0732 2019-03-23 14:26:34 20.3 21 23.9
003C0732 2019-03-23 13:55:27 20.3 21 23.8
003C0732 2019-03-23 13:24:20 20.3 21 23.8
003C0732 2019-03-23 12:53:15 20.3 21 23.9
003C0732 2019-03-23 12:22:12 20.3 20 24
003C0732 2019-03-23 11:51:07 20.3 20 24
003C0732 2019-03-23 11:20:02 20.3 20 24
003C0732 2019-03-23 10:48:57 20.3 20 23.9
003C0732 2019-03-23 10:17:52 20.4 20 23.9
003C0732 2019-03-23 09:46:47 20.3 20 23.7
003C0732 2019-03-23 09:15:40 20.3 20 23.7
003C0732 2019-03-23 08:44:33 20.4 20 23.7
003C0732 2019-03-23 08:13:27 20.4 20 23.8
003C0732 2019-03-23 07:42:22 20.4 20 23.7
003C0732 2019-03-23 07:11:16 20.4 20 23.7
003C0732 2019-03-23 06:40:09 20.4 20 23.7
003C0732 2019-03-23 06:09:02 20.4 20 23.6
003C0732 2019-03-23 05:37:54 20.4 19 23.6
003C0732 2019-03-23 05:06:48 20.4 19 22.8
003C0732 2019-03-23 04:35:40 20.5 19 23
003C0732 2019-03-23 04:04:33 20.5 19 23.2
003C0732 2019-03-23 03:33:29 20.5 19 23.1
003C0732 2019-03-23 03:02:23 20.6 19 23.2
003C0732 2019-03-23 02:31:18 20.6 19 23.3
003C0732 2019-03-23 02:00:12 20.6 19 23.1
003C0732 2019-03-23 01:29:05 20.7 18 22.9
003C0732 2019-03-23 00:57:58 20.8 18 23.1
003C0732 2019-03-23 00:26:51 20.8 18 23
003C0732 2019-03-22 23:55:44 20.9 18 22.9
003C0732 2019-03-22 23:24:36 20.9 18 22.8
003C0732 2019-03-22 22:53:29 21 18 22.7
003C0732 2019-03-22 22:22:21 21.1 18 23
003C0732 2019-03-22 21:51:14 21.2 17 23
003C0732 2019-03-22 21:20:07 21.3 17 22.8
003C0732 2019-03-22 20:49:01 21.3 17 23
003C0732 2019-03-22 20:17:55 21.3 17 23
003C0732 2019-03-22 19:46:48 21.3 17 23
003C0732 2019-03-22 19:15:42 21.2 16 22.7
003C0732 2019-03-22 18:44:37 21.2 16 22.5
003C0732 2019-03-22 18:13:30 21.2 16 22.6
003C0732 2019-03-22 17:42:25 21.2 16 22.7
003C0732 2019-03-22 17:11:20 21.2 15 22.6
003C0732 2019-03-22 16:40:13 21.2 15 22.7
003C0732 2019-03-22 16:08:40 21.1 15 22.6
003C0732 2019-03-22 15:37:33 21 16 22.6
003C0732 2019-03-22 15:06:27 20.9 16 22.7
003C0732 2019-03-22 14:35:22 20.7 17 22.8
003C0732 2019-03-22 14:04:16 20.7 18 22.8
003C0732 2019-03-22 13:33:10 20.6 18 23
003C0732 2019-03-22 13:02:05 20.6 18 23.2
003C0732 2019-03-22 12:31:00 20.6 19 23.1
003C0732 2019-03-22 11:59:54 20.6 19 23.1
003C0732 2019-03-22 11:28:49 20.6 20 23.2
003C0732 2019-03-22 10:57:42 20.6 20 23.4
003C0732 2019-03-22 10:26:36 20.6 21 23.2
003C0732 2019-03-22 09:55:33 20.5 21 23.2
003C0732 2019-03-22 09:24:28 20.5 21 23.3
003C0732 2019-03-22 08:53:24 20.5 22 23.6
003C0732 2019-03-22 08:22:20 20.5 22 23.6
003C0732 2019-03-22 07:51:14 20.5 23 23.6
003C0732 2019-03-22 07:20:09 20.5 23 23.8
003C0732 2019-03-22 06:49:03 20.5 24 24
003C0732 2019-03-22 06:17:58 20.5 24 24.2
003C0732 2019-03-22 05:46:52 20.5 24 24.1
003C0732 2019-03-22 05:15:49 20.5 25 24
003C0732 2019-03-22 04:44:44 20.5 25 24
003C0732 2019-03-22 04:13:39 20.6 25 24
003C0732 2019-03-22 03:42:35 20.5 26 24
003C0732 2019-03-22 03:11:31 20.6 26 23.9
003C0732 2019-03-22 02:40:28 20.6 26 23.9
003C0732 2019-03-22 02:09:23 20.6 27 23.8
003C0732 2019-03-22 01:38:18 20.6 27 24.3
003C0732 2019-03-22 01:07:12 20.6 27 24.2
003C0732 2019-03-22 00:36:06 20.7 28 24.1
003C0732 2019-03-22 00:05:01 20.7 28 24
003C0732 2019-03-21 23:33:55 20.7 28 24.1
003C0732 2019-03-21 23:02:49 20.8 28 24.2
003C0732 2019-03-21 22:31:43 20.8 28 24.2
003C0732 2019-03-21 22:00:38 20.8 28 24.1
003C0732 2019-03-21 21:29:33 20.8 28 24.4
003C0732 2019-03-21 20:58:27 20.8 28 24.3
003C0732 2019-03-21 20:27:22 20.9 28 24.3
003C0732 2019-03-21 19:56:14 20.9 28 24
003C0732 2019-03-21 19:25:08 20.9 28 24.2
003C0732 2019-03-21 18:54:01 21 28 24.2
003C0732 2019-03-21 18:22:53 21 28 24
003C0732 2019-03-21 17:51:46 21.1 27 24
003C0732 2019-03-21 17:20:39 21.1 27 23.8
003C0732 2019-03-21 16:49:32 21.2 27 23.9
003C0732 2019-03-21 16:18:27 21.2 27 24
003C0732 2019-03-21 15:47:22 21.3 28 24.1
003C0732 2019-03-21 15:16:16 21.3 28 24.1
003C0732 2019-03-21 14:45:09 21.4 27 24.3
003C0732 2019-03-21 14:43:57 21.1 28 24.4
003C0732 2019-03-21 14:12:51 21.1 27 24.4
003C0732 2019-03-21 13:41:45 21 26 24.4
003C0732 2019-03-21 13:10:38 20.9 26 23.9
003C0732 2019-03-21 12:39:31 20.8 25 24
003C0732 2019-03-21 12:08:25 20.8 25 24
003C0732 2019-03-21 11:37:19 20.7 25 24.1
003C0732 2019-03-21 11:06:14 20.7 25 24.1
003C0732 2019-03-21 10:35:09 20.6 25 24.1
003C0732 2019-03-21 10:04:03 20.6 25 24.1
003C0732 2019-03-21 09:32:56 20.5 25 24.2
003C0732 2019-03-21 09:01:51 20.5 25 24.2
003C0732 2019-03-21 08:30:46 20.5 25 24.2
003C0732 2019-03-21 07:59:42 20.5 25 24.3
003C0732 2019-03-21 07:28:36 20.5 25 24.4
003C0732 2019-03-21 06:57:31 20.5 25 24.8
003C0732 2019-03-21 06:26:26 20.5 25 24.8
003C0732 2019-03-21 05:55:22 20.5 25 24.9
003C0732 2019-03-21 05:24:18 20.5 25 24.8
003C0732 2019-03-21 04:53:13 20.5 25 24.8
003C0732 2019-03-21 04:22:09 20.5 25 24.7
003C0732 2019-03-21 03:51:04 20.5 25 24.7
003C0732 2019-03-21 03:19:57 20.5 25 24.7
003C0732 2019-03-21 02:48:52 20.5 25 24.6
003C0732 2019-03-21 02:17:48 20.5 25 24.5
003C0732 2019-03-21 01:46:43 20.5 26 24.4
003C0732 2019-03-21 01:15:39 20.5 26 24.5
003C0732 2019-03-21 00:44:33 20.5 26 24.5
003C0732 2019-03-21 00:13:27 20.5 26 24.6
003C0732 2019-03-20 23:42:21 20.6 26 24.5
003C0732 2019-03-20 23:11:14 20.6 26 24.5
003C0732 2019-03-20 22:40:06 20.6 26 24.4
003C0732 2019-03-20 22:09:00 20.6 26 24.3
003C0732 2019-03-20 21:37:54 20.6 26 24.2
003C0732 2019-03-20 21:06:48 20.6 26 24.2
003C0732 2019-03-20 20:35:43 20.6 26 24.3
003C0732 2019-03-20 20:04:38 20.7 26 24.1
003C0732 2019-03-20 19:33:32 20.7 26 24.2
003C0732 2019-03-20 19:02:26 20.8 26 24.1
003C0732 2019-03-20 18:31:21 20.8 25 24.2
003C0732 2019-03-20 18:00:15 20.8 25 23.7
003C0732 2019-03-20 17:29:10 20.9 25 23.7
003C0732 2019-03-20 16:58:04 20.9 25 23.7
003C0732 2019-03-20 16:26:59 21 25 23.8
003C0732 2019-03-20 15:55:53 21 25 24
003C0732 2019-03-20 15:24:46 21 26 23.9
003C0732 2019-03-20 14:53:41 21 25 23.8
003C0732 2019-03-20 14:22:34 21 25 23.8
003C0732 2019-03-20 13:51:28 20.9 25 23.9
003C0732 2019-03-20 13:20:21 20.9 25 23.9
003C0732 2019-03-20 12:48:40 20.8 25 23.8
003C0732 2019-03-20 12:17:32 20.8 25 23.9
003C0732 2019-03-20 11:46:25 20.8 25 24
003C0732 2019-03-20 11:15:20 20.7 25 24.2
003C0732 2019-03-20 10:44:08 20.6 25 24.2
003C0732 2019-03-20 10:13:00 20.5 24 24.4
003C0732 2019-03-20 09:41:52 20.5 24 25
003C0732 2019-03-20 09:10:45 20.4 24 25
003C0732 2019-03-20 08:39:38 20.4 25 24.9
003C0732 2019-03-20 08:08:32 20.4 25 24.7
003C0732 2019-03-20 07:37:25 20.4 26 24.8
003C0732 2019-03-20 07:06:21 20.4 26 24.7
003C0732 2019-03-20 06:35:14 20.5 26 24.8
003C0732 2019-03-20 06:04:06 20.4 26 24.6
003C0732 2019-03-20 05:33:00 20.4 26 24.5
003C0732 2019-03-20 05:01:55 20.5 26 24.4
003C0732 2019-03-20 04:30:47 20.4 27 24.4
003C0732 2019-03-20 03:59:42 20.5 27 24.4
003C0732 2019-03-20 03:28:36 20.5 27 24.4
003C0732 2019-03-20 02:57:30 20.5 27 24.3
003C0732 2019-03-20 02:26:25 20.5 27 24.2
003C0732 2019-03-20 01:55:22 20.5 27 24.1
003C0732 2019-03-20 01:24:15 20.5 28 23.9
003C0732 2019-03-20 00:53:10 20.5 28 23.9
003C0732 2019-03-20 00:22:05 20.5 28 23.7
003C0732 2019-03-19 23:51:00 20.6 28 23.5
003C0732 2019-03-19 23:19:56 20.6 28 23.4
003C0732 2019-03-19 22:48:50 20.6 28 23.2
003C0732 2019-03-19 22:17:43 20.7 28 22.9
003C0732 2019-03-19 21:46:38 20.7 28 22.9
003C0732 2019-03-19 21:15:33 20.7 28 22.8
003C0732 2019-03-19 20:44:28 20.7 29 21.9
003C0732 2019-03-19 20:13:21 20.8 29 21.9
003C0732 2019-03-19 19:42:14 20.8 29 21.9
003C0732 2019-03-19 19:11:07 20.9 29 21.9
003C0732 2019-03-19 18:40:01 20.9 29 21.6
003C0732 2019-03-19 18:08:55 21 29 21.6
003C0732 2019-03-19 17:37:49 21.1 30 21.6
003C0732 2019-03-19 17:06:42 21.2 30 22.1
003C0732 2019-03-19 16:35:35 21.1 30 22.1
003C0732 2019-03-19 16:04:28 21.1 30 22.2
003C0732 2019-03-19 15:33:21 21.1 29 23
003C0732 2019-03-19 15:02:13 21.1 29 22.8
003C0732 2019-03-19 14:31:07 21.1 29 22.8
003C0732 2019-03-19 14:00:00 21.1 29 22.9
003C0732 2019-03-19 13:28:53 21 29 23
003C0732 2019-03-19 12:57:47 21 29 23.2
003C0732 2019-03-19 12:26:39 20.9 29 23.9
003C0732 2019-03-19 11:55:32 20.9 30 24
003C0732 2019-03-19 11:24:25 20.8 29 24
003C0732 2019-03-19 10:52:45 20.7 29 24.2
003C0732 2019-03-19 10:21:39 20.6 28 24.3
003C0732 2019-03-19 09:50:34 20.5 28 24.5
003C0732 2019-03-19 09:19:27 20.5 27 24.4
003C0732 2019-03-19 08:48:21 20.5 27 24.2
003C0732 2019-03-19 08:17:13 20.4 27 24.3
003C0732 2019-03-19 07:46:06 20.4 27 24.2
003C0732 2019-03-19 07:14:58 20.4 27 24.2
003C0732 2019-03-19 06:43:52 20.4 27 24.2
003C0732 2019-03-19 06:12:48 20.4 27 24.2
003C0732 2019-03-19 05:41:40 20.4 27 24.1
003C0732 2019-03-19 05:10:33 20.5 27 23.9
003C0732 2019-03-19 04:39:27 20.5 27 23.7
003C0732 2019-03-19 04:08:21 20.5 27 23.6
003C0732 2019-03-19 03:37:15 20.5 27 23.5
003C0732 2019-03-19 03:06:08 20.5 27 23.5
003C0732 2019-03-19 02:35:01 20.5 27 23.5
003C0732 2019-03-19 02:03:55 20.5 27 23.5
003C0732 2019-03-19 01:32:49 20.5 27 23.4
003C0732 2019-03-19 01:01:44 20.5 27 23.4
003C0732 2019-03-19 00:30:38 20.5 27 23.3
003C0732 2019-03-18 23:59:31 20.5 27 22.6
003C0732 2019-03-18 23:28:25 20.5 27 22.6
003C0732 2019-03-18 22:57:20 20.5 27 22.8
003C0732 2019-03-18 22:26:14 20.5 27 22.7
003C0732 2019-03-18 21:55:10 20.6 27 22.7
003C0732 2019-03-18 21:24:06 20.6 27 22.6
003C0732 2019-03-18 20:53:01 20.6 27 22.5
003C0732 2019-03-18 20:21:56 20.6 27 22.5
003C0732 2019-03-18 19:50:50 20.6 27 22.6
003C0732 2019-03-18 19:19:44 20.6 27 22.7
003C0732 2019-03-18 18:48:36 20.7 26 23
003C0732 2019-03-18 18:17:29 20.7 27 23
003C0732 2019-03-18 17:46:22 20.8 27 23
003C0732 2019-03-18 17:15:14 20.8 27 23
003C0732 2019-03-18 16:44:08 20.8 27 23.1
003C0732 2019-03-18 16:13:00 20.9 27 23.1
003C0732 2019-03-18 15:41:53 20.7 27 23.2
003C0732 2019-03-18 15:10:45 20.8 27 23.3
003C0732 2019-03-18 14:39:38 20.7 27 23.3
003C0732 2019-03-18 14:08:30 20.7 27 22.7
003C0732 2019-03-18 13:37:23 20.6 27 22.7
003C0732 2019-03-18 13:06:15 20.6 27 22.6
003C0732 2019-03-18 12:35:08 20.6 27 22.5
003C0732 2019-03-18 12:04:01 20.6 27 22.6
003C0732 2019-03-18 11:32:53 20.6 27 22.8
003C0732 2019-03-18 11:01:46 20.6 27 22.6
003C0732 2019-03-18 10:30:38 20.6 27 22.4
003C0732 2019-03-18 09:59:30 20.5 27 22.3
003C0732 2019-03-18 09:28:24 20.5 27 22.5
003C0732 2019-03-18 08:56:44 20.5 27 22.6
003C0732 2019-03-18 08:25:36 20.5 27 22.5
003C0732 2019-03-18 07:54:28 20.5 27 22.5
003C0732 2019-03-18 07:23:22 20.4 27 22.4
003C0732 2019-03-18 06:52:15 20.5 27 22.3
003C0732 2019-03-18 06:21:09 20.5 27 22.1
003C0732 2019-03-18 05:50:03 20.5 27 22.9
003C0732 2019-03-18 05:18:56 20.5 27 22.8
003C0732 2019-03-18 04:47:51 20.5 27 22.9
003C0732 2019-03-18 04:16:46 20.5 27 23
003C0732 2019-03-18 03:45:43 20.5 27 23
003C0732 2019-03-18 03:14:39 20.5 27 22.8
003C0732 2019-03-18 02:43:34 20.5 26 22.9
003C0732 2019-03-18 02:12:28 20.5 26 23
003C0732 2019-03-18 01:41:22 20.4 26 22.9
003C0732 2019-03-18 01:10:15 20.5 26 22.9
003C0732 2019-03-18 00:39:07 20.5 26 22.9
003C0732 2019-03-18 00:08:00 20.5 26 23
003C0732 2019-03-17 23:36:55 20.4 26 23
003C0732 2019-03-17 23:05:49 20.5 26 22.9
003C0732 2019-03-17 22:34:44 20.5 26 22.9
003C0732 2019-03-17 22:03:38 20.5 26 23.3
003C0732 2019-03-17 21:32:33 20.4 26 23.5
003C0732 2019-03-17 21:01:26 20.5 26 23.3
003C0732 2019-03-17 20:30:20 20.5 26 23.2
003C0732 2019-03-17 19:59:15 20.4 26 23.1
003C0732 2019-03-17 19:28:09 20.4 26 23.2
003C0732 2019-03-17 18:57:03 20.5 26 23.2
003C0732 2019-03-17 18:25:56 20.5 26 23.4
003C0732 2019-03-17 17:54:50 20.5 26 23.2
003C0732 2019-03-17 17:23:42 20.5 26 23.3
003C0732 2019-03-17 16:52:35 20.5 26 22.4
003C0732 2019-03-17 16:21:28 20.5 26 22.4
003C0732 2019-03-17 15:50:22 20.5 26 22.3
003C0732 2019-03-17 15:19:16 20.5 26 22.4
003C0732 2019-03-17 14:48:10 20.5 26 22.3
003C0732 2019-03-17 14:17:02 20.5 26 23.2
003C0732 2019-03-17 13:45:55 20.5 26 23.1
003C0732 2019-03-17 13:14:48 20.5 26 23
003C0732 2019-03-17 12:43:43 20.5 26 23
003C0732 2019-03-17 12:12:37 20.5 26 22.9
003C0732 2019-03-17 11:41:33 20.5 26 23
003C0732 2019-03-17 11:10:28 20.5 26 22.9
003C0732 2019-03-17 10:39:23 20.5 26 22.9
003C0732 2019-03-17 10:08:18 20.5 26 23
003C0732 2019-03-17 09:37:12 20.5 26 23.1
003C0732 2019-03-17 09:06:06 20.5 26 22.8
003C0732 2019-03-17 08:35:00 20.5 26 22.7
003C0732 2019-03-17 08:03:54 20.5 26 22.6
003C0732 2019-03-17 07:32:48 20.5 26 22.6
003C0732 2019-03-17 07:01:09 20.5 26 22.6
003C0732 2019-03-17 06:30:04 20.5 27 22.4
003C0732 2019-03-17 05:58:58 20.5 26 22.5
003C0732 2019-03-17 05:27:53 20.5 26 22.4
003C0732 2019-03-17 04:56:49 20.5 27 22.6
003C0732 2019-03-17 04:25:45 20.5 26 22.6
003C0732 2019-03-17 03:54:42 20.5 26 22.7
003C0732 2019-03-17 03:23:37 20.5 27 22.4
003C0732 2019-03-17 02:52:32 20.5 27 22.6
003C0732 2019-03-17 02:21:27 20.5 27 21.6
003C0732 2019-03-17 01:50:23 20.5 27 21.9
003C0732 2019-03-17 01:19:19 20.5 27 22.1
003C0732 2019-03-17 00:48:13 20.5 27 22.3
003C0732 2019-03-17 00:17:07 20.5 26 22.7
003C0732 2019-03-16 23:46:02 20.5 26 22.7
003C0732 2019-03-16 23:14:56 20.5 26 22.7
003C0732 2019-03-16 22:43:51 20.5 26 22.7
003C0732 2019-03-16 22:12:45 20.5 26 22.4
003C0732 2019-03-16 21:41:40 20.5 26 22.5
003C0732 2019-03-16 21:10:35 20.5 26 22.6
003C0732 2019-03-16 20:39:29 20.5 26 22.6
003C0732 2019-03-16 20:08:24 20.5 26 23.4
003C0732 2019-03-16 19:37:19 20.5 26 23.5
003C0732 2019-03-16 19:06:13 20.5 26 23.5
003C0732 2019-03-16 18:35:06 20.5 26 24.1
003C0732 2019-03-16 18:04:01 20.5 26 24.2
003C0732 2019-03-16 17:32:55 20.5 26 24.2
003C0732 2019-03-16 17:01:51 20.5 26 24.2
003C0732 2019-03-16 16:30:45 20.5 26 24.3
003C0732 2019-03-16 15:59:39 20.6 26 24.4
003C0732 2019-03-16 15:28:34 20.5 26 24.5
003C0732 2019-03-16 14:57:29 20.5 26 24.5
003C0732 2019-03-16 14:26:25 20.5 26 24.5
003C0732 2019-03-16 13:55:20 20.5 26 24.5
003C0732 2019-03-16 13:24:16 20.5 26 24.5
003C0732 2019-03-16 12:53:11 20.5 26 24.3
003C0732 2019-03-16 12:22:05 20.5 26 24.7
003C0732 2019-03-16 11:51:00 20.5 26 24.6
003C0732 2019-03-16 11:19:56 20.5 26 24.6
003C0732 2019-03-16 10:48:50 20.5 26 24.5
003C0732 2019-03-16 10:17:45 20.5 26 24.5
003C0732 2019-03-16 09:46:40 20.5 26 24.4
003C0732 2019-03-16 09:15:35 20.5 26 24.7
003C0732 2019-03-16 08:44:30 20.5 26 24.8
003C0732 2019-03-16 08:13:23 20.5 26 24.8
003C0732 2019-03-16 07:42:17 20.5 26 25
003C0732 2019-03-16 07:11:09 20.5 26 24.6
003C0732 2019-03-16 06:40:04 20.6 26 24.5
003C0732 2019-03-16 06:08:58 20.5 26 24.4
003C0732 2019-03-16 05:37:52 20.5 26 23.9
003C0732 2019-03-16 05:06:14 20.6 26 24
003C0732 2019-03-16 04:35:08 20.5 26 24.2
003C0732 2019-03-16 04:04:01 20.5 26 24.2
003C0732 2019-03-16 03:32:54 20.5 26 24.1
003C0732 2019-03-16 03:01:48 20.5 26 24.1
003C0732 2019-03-16 02:30:40 20.6 26 24
003C0732 2019-03-16 01:59:34 20.6 26 24.1
003C0732 2019-03-16 01:28:28 20.6 26 24.1
003C0732 2019-03-16 00:57:22 20.6 26 24.2
003C0732 2019-03-16 00:26:18 20.5 26 24.4
003C0732 2019-03-15 23:55:12 20.6 26 23.9
003C0732 2019-03-15 23:24:07 20.6 26 23.9
003C0732 2019-03-15 22:53:01 20.6 26 23.7
003C0732 2019-03-15 22:21:58 20.6 26 23.6
003C0732 2019-03-15 21:50:52 20.7 26 23.7
003C0732 2019-03-15 21:19:46 20.7 26 23.7
003C0732 2019-03-15 20:48:42 20.7 26 23.6
003C0732 2019-03-15 20:17:38 20.7 26 23.5
003C0732 2019-03-15 19:46:34 20.7 26 23.4
003C0732 2019-03-15 19:15:30 20.7 26 23
003C0732 2019-03-15 18:44:25 20.7 26 23
003C0732 2019-03-15 18:13:20 20.7 26 23.2
003C0732 2019-03-15 17:42:15 20.7 26 23.4
003C0732 2019-03-15 17:11:09 20.7 26 23.1
003C0732 2019-03-15 16:40:01 20.7 26 22.9
003C0732 2019-03-15 16:08:53 20.7 26 22.9
003C0732 2019-03-15 15:37:45 20.7 26 22.8
003C0732 2019-03-15 15:06:38 20.7 26 22.5
003C0732 2019-03-15 14:35:30 20.7 26 22.5
003C0732 2019-03-15 14:04:24 20.7 26 22.5
003C0732 2019-03-15 13:33:19 20.7 26 22.5
003C0732 2019-03-15 13:02:13 20.7 26 22.5
003C0732 2019-03-15 12:31:06 20.7 26 22.3
003C0732 2019-03-15 12:00:01 20.7 26 22.2
003C0732 2019-03-15 11:28:53 20.7 26 22.1
003C0732 2019-03-15 10:57:46 20.7 25 22
003C0732 2019-03-15 10:26:41 20.6 25 21.9
003C0732 2019-03-15 09:55:34 20.6 25 22
003C0732 2019-03-15 09:24:29 20.5 25 22.1
003C0732 2019-03-15 08:53:23 20.5 25 22.4
003C0732 2019-03-15 08:22:16 20.5 25 22.4
003C0732 2019-03-15 07:51:11 20.5 24 22.1
003C0732 2019-03-15 07:20:04 20.5 24 22
003C0732 2019-03-15 06:48:57 20.5 24 22
003C0732 2019-03-15 06:17:52 20.5 24 22.1
003C0732 2019-03-15 05:46:47 20.5 24 21.8
003C0732 2019-03-15 05:15:42 20.5 24 21.8
003C0732 2019-03-15 04:44:36 20.5 24 21.8
003C0732 2019-03-15 04:13:31 20.6 24 22.1
003C0732 2019-03-15 03:42:23 20.5 24 22.2
003C0732 2019-03-15 03:10:43 20.5 24 22
003C0732 2019-03-15 02:39:37 20.5 24 22.3
003C0732 2019-03-15 02:08:31 20.6 24 22.4
003C0732 2019-03-15 01:37:25 20.6 24 22.3
003C0732 2019-03-15 01:06:18 20.6 24 22.2
003C0732 2019-03-15 00:35:13 20.6 24 22.4
003C0732 2019-03-15 00:04:08 20.6 24 22.6
003C0732 2019-03-14 23:33:01 20.6 24 22.6
003C0732 2019-03-14 23:01:54 20.6 24 22.5
003C0732 2019-03-14 22:30:47 20.6 24 22.3
003C0732 2019-03-14 21:59:41 20.7 24 22.2
003C0732 2019-03-14 21:28:35 20.7 24 22.3
003C0732 2019-03-14 20:57:28 20.7 24 22.2
003C0732 2019-03-14 20:26:20 20.7 24 22
003C0732 2019-03-14 19:55:12 20.7 24 22.8
003C0732 2019-03-14 19:24:04 20.8 23 22.8
003C0732 2019-03-14 18:52:56 20.8 23 23
003C0732 2019-03-14 18:21:50 20.8 23 23
003C0732 2019-03-14 17:50:42 20.9 23 23.1
003C0732 2019-03-14 17:19:36 20.9 23 23.4
003C0732 2019-03-14 16:48:30 20.9 24 23.5
003C0732 2019-03-14 16:17:23 20.9 23 23.4
003C0732 2019-03-14 15:46:16 20.9 23 23.4
003C0732 2019-03-14 15:15:10 20.9 23 23.3
003C0732 2019-03-14 14:44:02 20.9 23 23.4
003C0732 2019-03-14 14:12:53 20.9 23 23.3
003C0732 2019-03-14 13:41:47 20.8 23 23.3
003C0732 2019-03-14 13:10:40 20.8 23 23.3
003C0732 2019-03-14 12:39:33 20.8 23 23.2
003C0732 2019-03-14 12:08:26 20.7 22 23.3
003C0732 2019-03-14 11:37:19 20.8 22 23.2
003C0732 2019-03-14 11:06:12 20.7 22 23.2
003C0732 2019-03-14 10:35:08 20.7 22 23.1
003C0732 2019-03-14 10:04:01 20.6 22 23.2
003C0732 2019-03-14 09:32:56 20.6 21 23.3
003C0732 2019-03-14 09:01:50 20.6 21 23.4
003C0732 2019-03-14 07:28:38 20.5 19 23.5
003C0732 2019-03-14 06:26:28 20.5 19 22.8
003C0732 2019-03-14 04:53:12 20.5 18 22.7
003C0732 2019-03-14 04:22:08 20.5 18 22.4
003C0732 2019-03-14 03:51:02 20.5 18 22
003C0732 2019-03-14 03:19:58 20.5 18 21.9
003C0732 2019-03-14 02:48:56 20.5 18 21.9
003C0732 2019-03-14 02:17:46 20.5 18 22.8
003C0732 2019-03-14 01:46:39 20.5 18 23.5
003C0732 2019-03-14 01:15:00 20.5 17 23.3
003C0732 2019-03-14 00:43:54 20.5 17 23.5
003C0732 2019-03-14 00:12:47 20.5 17 23.5
003C0732 2019-03-13 23:41:40 20.5 17 23.6
003C0732 2019-03-13 23:10:32 20.5 17 23.6
003C0732 2019-03-13 22:39:24 20.5 17 23.6
003C0732 2019-03-13 22:08:17 20.6 17 23.7
003C0732 2019-03-13 21:37:11 20.6 16 23.9
003C0732 2019-03-13 21:06:04 20.6 16 24
003C0732 2019-03-13 20:34:56 20.6 16 23.9
003C0732 2019-03-13 20:03:47 20.6 16 24.1
003C0732 2019-03-13 19:32:40 20.6 16 24.2
003C0732 2019-03-13 19:01:33 20.7 16 24.5
003C0732 2019-03-13 18:30:25 20.8 16 24.7
003C0732 2019-03-13 17:59:16 20.8 16 24.8
003C0732 2019-03-13 17:28:07 20.9 16 25
003C0732 2019-03-13 16:57:00 20.9 16 25
003C0732 2019-03-13 16:25:52 20.9 16 25.1
003C0732 2019-03-13 15:54:44 20.8 16 25.3
003C0732 2019-03-13 15:23:36 20.8 16 25.4
003C0732 2019-03-13 14:52:29 20.8 16 25.5
003C0732 2019-03-13 14:21:21 20.8 16 25.6
003C0732 2019-03-13 13:50:13 20.8 16 25.2
003C0732 2019-03-13 13:19:06 20.7 16 25.2
003C0732 2019-03-13 12:48:00 20.8 16 25.4
003C0732 2019-03-13 12:16:54 20.7 16 25.5
003C0732 2019-03-13 11:45:48 20.7 16 25.5
003C0732 2019-03-13 11:14:42 20.7 16 25.6
003C0732 2019-03-13 10:43:37 20.6 16 25.7
003C0732 2019-03-13 10:12:32 20.6 16 25.6
003C0732 2019-03-13 09:41:27 20.4 15 25.7
003C0732 2019-03-13 09:10:22 20.2 15 25.7
003C0732 2019-03-13 08:39:16 20.2 14 25.8
003C0732 2019-03-13 08:08:10 20.2 15 25.7
003C0732 2019-03-13 07:37:04 20.2 15 25.8
003C0732 2019-03-13 07:05:55 20.2 15 25.7
003C0732 2019-03-13 06:34:48 20.2 15 25.7
003C0732 2019-03-13 06:03:41 20.3 15 25.5
003C0732 2019-03-13 05:32:36 20.3 15 25.5
003C0732 2019-03-13 05:01:29 20.3 15 25.5
003C0732 2019-03-13 04:30:23 20.3 15 25.4
003C0732 2019-03-13 03:59:18 20.3 16 25.3
003C0732 2019-03-13 03:28:14 20.3 16 25.2
003C0732 2019-03-13 02:57:10 20.3 16 25.1
003C0732 2019-03-13 02:26:04 20.3 16 25
003C0732 2019-03-13 01:54:58 20.4 16 25.3
003C0732 2019-03-13 01:23:51 20.4 16 25.7
003C0732 2019-03-13 00:52:45 20.4 16 25.6
003C0732 2019-03-13 00:21:39 20.4 16 25.3
003C0732 2019-03-12 23:50:34 20.4 16 25.2
003C0732 2019-03-12 23:18:57 20.4 16 25.5
003C0732 2019-03-12 22:47:51 20.4 16 25.5
003C0732 2019-03-12 22:16:47 20.5 16 25.7
003C0732 2019-03-12 21:45:43 20.5 16 26.1
003C0732 2019-03-12 21:14:38 20.5 16 26.3
003C0732 2019-03-12 20:43:33 20.5 16 26.6
003C0732 2019-03-12 20:12:28 20.5 16 26.8
003C0732 2019-03-12 19:41:24 20.5 16 27.1
003C0732 2019-03-12 19:10:18 20.6 16 27.3
003C0732 2019-03-12 18:39:12 20.6 16 27.5
003C0732 2019-03-12 18:08:05 20.6 16 27.7
003C0732 2019-03-12 17:37:00 20.7 16 27.9
003C0732 2019-03-12 17:05:55 20.7 16 28.1
003C0732 2019-03-12 16:34:49 20.7 16 28.3
003C0732 2019-03-12 16:03:43 20.6 16 28.5
003C0732 2019-03-12 15:32:36 20.6 16 28.7
003C0732 2019-03-12 15:01:29 20.6 16 28.9
003C0732 2019-03-12 14:30:23 20.6 16 29.1
003C0732 2019-03-12 13:59:16 20.6 16 29.2
003C0732 2019-03-12 13:28:09 20.6 16 29.2
003C0732 2019-03-12 12:57:01 20.5 16 29.2
003C0732 2019-03-12 12:25:55 20.5 16 29.4
003C0732 2019-03-12 11:54:49 20.5 16 29.6
003C0732 2019-03-12 11:23:43 20.5 15 29.7
003C0732 2019-03-12 10:52:38 20.4 15 29.7
003C0732 2019-03-12 10:21:32 20.4 15 29.8
003C0732 2019-03-12 09:50:26 20.3 15 30
003C0732 2019-03-12 09:19:19 20.3 15 30
003C0732 2019-03-12 08:48:15 20.2 15 30
003C0732 2019-03-12 08:17:11 20.2 15 30
003C0732 2019-03-12 07:46:08 20.2 15 30
003C0732 2019-03-12 07:15:03 20.2 15 30
003C0732 2019-03-12 06:43:58 20.3 16 30
003C0732 2019-03-12 06:12:54 20.3 16 30
003C0732 2019-03-12 05:41:48 20.3 16 30
003C0732 2019-03-12 05:10:42 20.3 16 30
003C0732 2019-03-12 04:39:36 20.3 16 30
003C0732 2019-03-12 04:08:30 20.3 16 29.9
003C0732 2019-03-12 03:37:24 20.3 16 29.7
003C0732 2019-03-12 03:06:19 20.4 16 29.6
003C0732 2019-03-12 02:35:13 20.3 16 29.4
003C0732 2019-03-12 02:04:05 20.4 16 29.2
003C0732 2019-03-12 01:32:58 20.4 16 29.1
003C0732 2019-03-12 01:01:52 20.4 16 29
003C0732 2019-03-12 00:30:46 20.4 16 28.8
003C0732 2019-03-11 23:59:38 20.4 16 28.6
003C0732 2019-03-11 23:28:31 20.4 16 28.4
003C0732 2019-03-11 22:57:24 20.5 16 28.2
003C0732 2019-03-11 22:26:17 20.5 16 28.1
003C0732 2019-03-11 21:55:09 20.5 16 27.9
003C0732 2019-03-11 21:23:32 20.5 16 27.5
003C0732 2019-03-11 20:52:26 20.5 16 27.2
003C0732 2019-03-11 20:21:19 20.5 16 26.9
003C0732 2019-03-11 19:50:14 20.6 16 26.7
003C0732 2019-03-11 19:19:07 20.6 16 26.4
003C0732 2019-03-11 18:48:02 20.6 16 26.1
003C0732 2019-03-11 18:16:56 20.7 16 25.7
003C0732 2019-03-11 17:45:51 20.7 16 25.5
003C0732 2019-03-11 17:14:45 20.7 16 25.3
003C0732 2019-03-11 16:43:39 20.7 16 25
003C0732 2019-03-11 16:12:33 20.7 16 24.4
003C0732 2019-03-11 15:41:26 20.6 16 24.4
003C0732 2019-03-11 15:10:22 20.6 16 24.4
003C0732 2019-03-11 14:39:16 20.5 16 24.4
003C0732 2019-03-11 14:08:11 20.5 16 24.5
003C0732 2019-03-11 13:37:07 20.5 16 24.5
003C0732 2019-03-11 13:06:03 20.5 16 24.5
003C0732 2019-03-11 12:34:57 20.4 16 24.4
003C0732 2019-03-11 12:03:51 20.4 16 24.5
003C0732 2019-03-11 11:32:43 20.4 16 24.6
003C0732 2019-03-11 11:01:36 20.4 17 24.5
003C0732 2019-03-11 10:30:29 20.4 17 24.6
003C0732 2019-03-11 09:59:23 20.3 17 24.5
003C0732 2019-03-11 09:28:17 20.3 17 24.3
003C0732 2019-03-11 08:57:13 20.2 17 24.2
003C0732 2019-03-11 08:26:06 20.2 17 24
003C0732 2019-03-11 07:54:59 20.2 17 23.9
003C0732 2019-03-11 07:23:52 20.2 18 24.2
003C0732 2019-03-11 06:52:44 20.3 18 24.2
003C0732 2019-03-11 06:21:39 20.3 18 24.6
003C0732 2019-03-11 05:50:36 20.3 18 24.6
003C0732 2019-03-11 05:19:29 20.3 18 24.7
003C0732 2019-03-11 04:48:23 20.3 18 24.5
003C0732 2019-03-11 04:17:16 20.3 18 24.5
003C0732 2019-03-11 03:46:10 20.3 18 24.5
003C0732 2019-03-11 03:15:02 20.3 18 24.5
003C0732 2019-03-11 02:43:57 20.3 19 24.6
003C0732 2019-03-11 02:12:52 20.3 19 24.8
003C0732 2019-03-11 01:41:46 20.3 19 24.9
003C0732 2019-03-11 01:10:43 20.3 19 24.8
003C0732 2019-03-11 00:39:36 20.3 19 24.8
003C0732 2019-03-11 00:08:30 20.4 19 24.9
003C0732 2019-03-10 23:37:24 20.4 19 24.9
003C0732 2019-03-10 23:06:18 20.4 19 24.9
003C0732 2019-03-10 22:35:14 20.4 19 24.9
003C0732 2019-03-10 22:04:10 20.4 19 24.9
003C0732 2019-03-10 21:33:05 20.4 19 24.9
003C0732 2019-03-10 21:02:01 20.5 19 24.9
003C0732 2019-03-10 20:30:55 20.5 20 25.1
003C0732 2019-03-10 19:59:49 20.5 20 25
003C0732 2019-03-10 19:28:09 20.5 20 25.2
003C0732 2019-03-10 18:57:03 20.6 20 25.1
003C0732 2019-03-10 18:25:57 20.6 20 25.1
003C0732 2019-03-10 17:54:51 20.6 20 24.6
003C0732 2019-03-10 17:23:45 20.6 20 24.6
003C0732 2019-03-10 16:52:38 20.6 20 24.4
003C0732 2019-03-10 16:21:31 20.6 21 24.5
003C0732 2019-03-10 15:50:23 20.5 21 24.3
003C0732 2019-03-10 15:19:16 20.6 21 24.2
003C0732 2019-03-10 14:48:09 20.6 22 24.4
003C0732 2019-03-10 14:17:03 20.5 23 24.3
003C0732 2019-03-10 13:45:58 20.5 23 24.2
003C0732 2019-03-10 13:14:51 20.5 24 24
003C0732 2019-03-10 12:43:46 20.4 24 24.2
003C0732 2019-03-10 12:12:41 20.4 24 24.1
003C0732 2019-03-10 11:41:35 20.4 24 24.1
003C0732 2019-03-10 11:10:30 20.4 24 23.9
003C0732 2019-03-10 10:39:23 20.4 24 24
003C0732 2019-03-10 10:08:16 20.4 24 23.9
003C0732 2019-03-10 09:37:12 20.4 24 23.9
003C0732 2019-03-10 09:06:07 20.4 24 23.7
003C0732 2019-03-10 08:35:02 20.4 24 23.8
003C0732 2019-03-10 08:03:57 20.4 24 23.8
003C0732 2019-03-10 07:32:52 20.5 24 24.1
003C0732 2019-03-10 07:01:47 20.4 24 24.2
003C0732 2019-03-10 06:30:42 20.4 24 24.1
003C0732 2019-03-10 05:59:37 20.5 24 24
003C0732 2019-03-10 05:28:31 20.4 24 24.1
003C0732 2019-03-10 04:57:25 20.5 24 24.2
003C0732 2019-03-10 04:26:19 20.5 24 24.2
003C0732 2019-03-10 03:55:13 20.4 24 24.4
003C0732 2019-03-10 03:24:07 20.5 24 24.3
003C0732 2019-03-10 02:53:01 20.5 24 24.4
003C0732 2019-03-10 02:21:55 20.5 24 24.5
003C0732 2019-03-10 01:50:46 20.5 24 24.4
003C0732 2019-03-10 01:19:38 20.5 24 24.5
003C0732 2019-03-10 00:48:30 20.5 24 24.4
003C0732 2019-03-10 00:17:23 20.5 24 24.6
003C0732 2019-03-09 23:46:17 20.5 24 24.5
003C0732 2019-03-09 23:15:10 20.5 23 24.5
003C0732 2019-03-09 22:44:04 20.5 23 24.4
003C0732 2019-03-09 22:12:59 20.5 23 24.5
003C0732 2019-03-09 21:41:53 20.5 23 24.4
003C0732 2019-03-09 21:10:46 20.5 23 24.5
003C0732 2019-03-09 20:39:40 20.5 23 24.5
003C0732 2019-03-09 20:08:33 20.6 23 24.7
003C0732 2019-03-09 19:37:27 20.6 23 24.7
003C0732 2019-03-09 19:06:19 20.6 23 24.7
003C0732 2019-03-09 18:35:12 20.6 23 24.6
003C0732 2019-03-09 18:04:06 20.6 23 24.5
003C0732 2019-03-09 17:32:27 20.7 23 24.6
003C0732 2019-03-09 17:01:20 20.7 23 24.5
003C0732 2019-03-09 16:30:13 20.7 23 24.4
003C0732 2019-03-09 15:59:07 20.7 23 24.5
003C0732 2019-03-09 15:27:59 20.7 23 24.4
003C0732 2019-03-09 14:56:53 20.7 23 24.5
003C0732 2019-03-09 14:25:46 20.6 23 24.5
003C0732 2019-03-09 13:54:39 20.6 23 24.6
003C0732 2019-03-09 13:23:33 20.6 23 24.5
003C0732 2019-03-09 12:52:27 20.6 23 24.6
003C0732 2019-03-09 12:21:20 20.5 23 24.8
003C0732 2019-03-09 11:50:12 20.5 24 24.8
003C0732 2019-03-09 11:19:07 20.5 24 24.8
003C0732 2019-03-09 10:48:02 20.5 24 24.8
003C0732 2019-03-09 10:16:58 20.5 24 24.7
003C0732 2019-03-09 09:45:52 20.5 24 24.7
003C0732 2019-03-09 09:14:46 20.5 24 24.6
003C0732 2019-03-09 08:43:41 20.4 25 24.4
003C0732 2019-03-09 08:12:37 20.5 25 24.4
003C0732 2019-03-09 07:41:31 20.5 25 24.3
003C0732 2019-03-09 07:10:24 20.5 25 24.3
003C0732 2019-03-09 06:39:18 20.5 25 24.1
003C0732 2019-03-09 06:08:12 20.5 26 23.9
003C0732 2019-03-09 05:37:06 20.5 26 24
003C0732 2019-03-09 05:06:01 20.5 26 24.1
003C0732 2019-03-09 04:34:56 20.6 26 23.9
003C0732 2019-03-09 04:03:50 20.6 26 24
003C0732 2019-03-09 03:32:45 20.6 26 23.8
003C0732 2019-03-09 03:01:37 20.6 26 23.7
003C0732 2019-03-09 02:30:29 20.6 26 23.6
003C0732 2019-03-09 01:59:21 20.7 26 23.5
003C0732 2019-03-09 01:28:14 20.7 26 23.4
003C0732 2019-03-09 00:57:06 20.7 27 23.4
003C0732 2019-03-09 00:25:59 20.7 27 23.2
003C0732 2019-03-08 23:54:52 20.7 27 22.8
003C0732 2019-03-08 23:23:46 20.7 27 22.5
003C0732 2019-03-08 22:52:40 20.8 27 22.5
003C0732 2019-03-08 22:21:34 20.8 27 22.4
003C0732 2019-03-08 21:50:27 20.8 27 22
003C0732 2019-03-08 21:19:21 20.8 27 22.3
003C0732 2019-03-08 20:48:15 20.8 27 22.4
003C0732 2019-03-08 20:17:10 20.9 27 22.4
003C0732 2019-03-08 19:46:04 20.9 27 22.5
003C0732 2019-03-08 19:14:59 20.9 27 22.3
003C0732 2019-03-08 18:43:55 20.9 27 22.2
003C0732 2019-03-08 18:12:48 20.9 27 21.9
003C0732 2019-03-08 17:41:44 21 27 21.9
003C0732 2019-03-08 17:10:37 21.1 27 22.1
003C0732 2019-03-08 16:39:31 21 27 22.3
003C0732 2019-03-08 16:08:23 21 27 22.3
003C0732 2019-03-08 15:36:44 21 27 22.4
003C0732 2019-03-08 15:05:37 20.9 26 22.6
003C0732 2019-03-08 14:34:29 20.9 27 22.6
003C0732 2019-03-08 14:03:20 20.9 26 22.8
003C0732 2019-03-08 13:32:13 20.8 26 22.7
003C0732 2019-03-08 13:01:06 20.8 26 22.8
003C0732 2019-03-08 12:30:01 20.8 26 22.6
003C0732 2019-03-08 11:58:56 20.8 25 22.6
003C0732 2019-03-08 11:27:50 20.7 25 22.9
003C0732 2019-03-08 10:56:44 20.7 25 23
003C0732 2019-03-08 10:25:38 20.7 25 23.1
003C0732 2019-03-08 09:54:30 20.7 25 23
003C0732 2019-03-08 09:23:23 20.6 24 23.2
003C0732 2019-03-08 08:52:17 20.6 24 23
003C0732 2019-03-08 08:21:10 20.6 24 23
003C0732 2019-03-08 07:50:03 20.6 24 23
003C0732 2019-03-08 07:18:57 20.6 23 23.1
003C0732 2019-03-08 06:47:51 20.6 23 23.2
003C0732 2019-03-08 06:16:44 20.6 23 23.2
003C0732 2019-03-08 05:45:38 20.6 23 23.2
003C0732 2019-03-08 05:14:31 20.6 23 23
003C0732 2019-03-08 04:43:25 20.6 23 23.6
003C0732 2019-03-08 04:12:19 20.6 23 23.5
003C0732 2019-03-08 03:41:13 20.6 23 23.6
003C0732 2019-03-08 03:10:06 20.6 23 23.6
003C0732 2019-03-08 02:38:59 20.6 23 23.5
003C0732 2019-03-08 02:07:52 20.7 23 24.1
003C0732 2019-03-08 01:36:46 20.6 22 23.9
003C0732 2019-03-08 01:05:38 20.6 22 23.7
003C0732 2019-03-08 00:34:32 20.6 22 23.7
003C0732 2019-03-08 00:03:26 20.7 22 23.8
003C0732 2019-03-07 23:32:19 20.7 22 23.8
003C0732 2019-03-07 23:01:11 20.7 22 23.9
003C0732 2019-03-07 22:30:07 20.7 22 23.7
003C0732 2019-03-07 21:59:02 20.7 22 24.2
003C0732 2019-03-07 21:27:56 20.8 22 24
003C0732 2019-03-07 20:56:51 20.8 22 24
003C0732 2019-03-07 20:25:45 20.8 22 23.8
003C0732 2019-03-07 19:54:38 20.8 22 23.8
003C0732 2019-03-07 19:23:31 20.9 22 23.7
003C0732 2019-03-07 18:52:24 20.9 22 23.5
003C0732 2019-03-07 18:21:16 21 22 23.4
003C0732 2019-03-07 17:50:08 21 22 23.2
003C0732 2019-03-07 17:19:01 21.1 22 23.2
003C0732 2019-03-07 16:47:52 21.1 22 23.2
003C0732 2019-03-07 16:16:46 21 22 23.3
003C0732 2019-03-07 15:45:39 21.1 21 22.5
003C0732 2019-03-07 15:14:33 21 21 22.4
003C0732 2019-03-07 14:43:25 21.1 21 22
003C0732 2019-03-07 14:12:17 20.9 20 21.8
003C0732 2019-03-07 13:40:37 20.9 20 20.6
003C0732 2019-03-07 13:09:31 20.9 19 20.7
003C0732 2019-03-07 12:38:22 20.9 19 20.7
003C0732 2019-03-07 12:07:14 20.9 18 20.4
003C0732 2019-03-07 11:36:06 20.8 18 20.3
003C0732 2019-03-07 11:05:00 20.8 18 20.3
003C0732 2019-03-07 10:33:52 20.7 17 19.9
003C0732 2019-03-07 10:02:43 20.7 17 19.9
003C0732 2019-03-07 09:31:35 20.6 16 17.7
003C0732 2019-03-07 09:00:29 20.6 16 17.6
003C0732 2019-03-07 08:29:19 20.6 16 17.6
003C0732 2019-03-07 07:58:13 20.7 15 17.6
003C0732 2019-03-07 07:27:05 20.6 15 17.5
003C0732 2019-03-07 06:55:58 20.6 14 18
003C0732 2019-03-07 06:24:50 20.6 14 17.9
003C0732 2019-03-07 05:53:41 20.6 14 18
003C0732 2019-03-07 05:22:33 20.6 14 18.1
003C0732 2019-03-07 04:51:25 20.7 14 18
003C0732 2019-03-07 04:20:18 20.6 14 18.1
003C0732 2019-03-07 03:49:10 20.6 13 18
003C0732 2019-03-07 03:18:01 20.6 13 18
003C0732 2019-03-07 02:46:52 20.6 13 17.9
003C0732 2019-03-07 02:15:44 20.6 13 17.8
003C0732 2019-03-07 01:44:37 20.6 13 20
003C0732 2019-03-07 01:13:30 20.6 13 20.3
003C0732 2019-03-07 00:42:22 20.6 13 20.2
003C0732 2019-03-07 00:11:15 20.6 12 20.1
003C0732 2019-03-06 23:40:10 20.6 12 21.5
003C0732 2019-03-06 23:09:00 20.7 12 21.5
003C0732 2019-03-06 22:37:54 20.7 12 21.4
003C0732 2019-03-06 22:06:46 20.6 12 21.5
003C0732 2019-03-06 21:35:39 20.7 12 21.6
003C0732 2019-03-06 21:04:32 20.7 12 21.7
003C0732 2019-03-06 20:33:26 20.7 12 21.7
003C0732 2019-03-06 20:02:18 20.7 12 21.7
003C0732 2019-03-06 19:31:10 20.7 12 21.7
003C0732 2019-03-06 19:00:04 20.8 12 21.7
003C0732 2019-03-06 18:28:57 20.8 11 21.7
003C0732 2019-03-06 17:57:50 20.8 11 21.6
003C0732 2019-03-06 17:26:41 20.8 11 21.9
003C0732 2019-03-06 16:55:32 20.8 11 21.9
003C0732 2019-03-06 16:24:24 20.9 11 22.1
003C0732 2019-03-06 15:53:17 20.8 11 22.1
003C0732 2019-03-06 15:22:09 20.8 11 22.3
003C0732 2019-03-06 14:51:01 20.8 11 22.3
003C0732 2019-03-06 14:19:54 20.7 11 22.5
003C0732 2019-03-06 13:48:47 20.6 11 22.5
003C0732 2019-03-06 13:17:40 20.6 11 22.7
003C0732 2019-03-06 12:46:33 20.6 11 21.8
003C0732 2019-03-06 12:15:30 20.8 11 22.7
003C0732 2019-03-06 12:14:15 20.5 11 22.8
003C0732 2019-03-06 11:43:09 20.5 11 22.9
003C0732 2019-03-06 11:12:04 20.5 11 21.9
003C0732 2019-03-06 10:40:58 20.5 12 21.9
003C0732 2019-03-06 10:09:51 20.4 12 22
003C0732 2019-03-06 09:38:42 20.3 11 21.9
003C0732 2019-03-06 09:07:33 20.3 11 22.1
003C0732 2019-03-06 08:36:26 20.4 12 22.1
003C0732 2019-03-06 08:05:18 20.4 12 22.3
003C0732 2019-03-06 07:34:10 20.4 12 22.6
003C0732 2019-03-06 07:03:02 20.4 12 22.8
003C0732 2019-03-06 06:31:55 20.4 12 22.9
003C0732 2019-03-06 06:00:49 20.5 12 22.9
003C0732 2019-03-06 05:29:41 20.4 12 22.6
003C0732 2019-03-06 04:58:35 20.5 13 22.6
003C0732 2019-03-06 04:27:28 20.5 13 22.5
003C0732 2019-03-06 03:56:20 20.5 13 22.5
003C0732 2019-03-06 03:25:14 20.5 13 22.5
003C0732 2019-03-06 02:54:07 20.5 13 22.8
003C0732 2019-03-06 02:23:00 20.6 13 22.7
003C0732 2019-03-06 01:51:52 20.6 13 22.8
003C0732 2019-03-06 01:20:44 20.6 13 22.6
003C0732 2019-03-06 00:49:37 20.6 13 22.5
003C0732 2019-03-06 00:18:29 20.6 13 21.6
003C0732 2019-03-05 23:47:22 20.7 13 21.4
003C0732 2019-03-05 23:16:14 20.7 13 21.4
003C0732 2019-03-05 22:45:06 20.7 13 21.3
003C0732 2019-03-05 22:13:58 20.8 13 21.3
003C0732 2019-03-05 21:42:50 20.8 13 21.1
003C0732 2019-03-05 21:11:42 20.8 13 21
003C0732 2019-03-05 20:40:35 20.8 14 20.6
003C0732 2019-03-05 20:09:27 20.8 14 20.5
003C0732 2019-03-05 19:38:18 20.8 14 20.3
003C0732 2019-03-05 19:07:11 20.8 14 20
003C0732 2019-03-05 18:36:03 20.8 14 19.9
003C0732 2019-03-05 18:04:55 20.9 14 19.6
003C0732 2019-03-05 17:33:48 20.9 14 19.4
003C0732 2019-03-05 17:02:40 20.9 15 19.1
003C0732 2019-03-05 16:31:35 20.9 15 19.2
003C0732 2019-03-05 16:00:25 20.8 15 19.3
003C0732 2019-03-05 15:29:17 20.7 16 19.1
003C0732 2019-03-05 14:58:08 20.6 16 19.2
003C0732 2019-03-05 14:27:01 20.6 16 18.7
003C0732 2019-03-05 13:55:54 20.5 16 18
003C0732 2019-03-05 13:24:50 20.5 17 20
003C0732 2019-03-05 12:53:42 20.5 17 19.7
003C0732 2019-03-05 12:22:37 20.5 17 19.7
003C0732 2019-03-05 11:51:28 20.4 17 19.7
003C0732 2019-03-05 11:20:20 20.4 17 19.6
003C0732 2019-03-05 10:49:12 20.4 17 19.6
003C0732 2019-03-05 10:17:32 20.4 18 19.5
003C0732 2019-03-05 09:46:21 20.4 18 19.6
003C0732 2019-03-05 09:15:14 20.4 18 19.6
003C0732 2019-03-05 08:44:04 20.4 18 19.7
003C0732 2019-03-05 08:12:55 20.4 18 19.7
003C0732 2019-03-05 07:41:46 20.4 18 19.6
003C0732 2019-03-05 07:10:37 20.5 18 19.5
003C0732 2019-03-05 06:39:28 20.5 18 19.4
003C0732 2019-03-05 06:08:19 20.5 18 19.4
003C0732 2019-03-05 05:37:10 20.4 18 19.3
003C0732 2019-03-05 05:06:01 20.5 18 19.4
003C0732 2019-03-05 04:34:55 20.5 18 19.4
003C0732 2019-03-05 04:03:48 20.5 18 19.2
003C0732 2019-03-05 03:32:41 20.5 18 19.2
003C0732 2019-03-05 03:01:34 20.5 18 19
003C0732 2019-03-05 02:30:31 20.5 18 20.7
003C0732 2019-03-05 01:59:23 20.5 18 20.6
003C0732 2019-03-05 01:28:17 20.5 18 18.8
003C0732 2019-03-05 00:57:10 20.5 18 18.8
003C0732 2019-03-05 00:26:02 20.5 18 19.2
003C0732 2019-03-04 23:54:54 20.5 18 19.3
003C0732 2019-03-04 23:23:47 20.5 18 19.1
003C0732 2019-03-04 22:52:40 20.5 18 19.1
003C0732 2019-03-04 22:21:34 20.5 18 19
003C0732 2019-03-04 21:50:29 20.5 18 19
003C0732 2019-03-04 21:19:21 20.5 18 19
003C0732 2019-03-04 20:48:17 20.5 18 19
003C0732 2019-03-04 20:17:12 20.5 18 19
003C0732 2019-03-04 19:46:07 20.5 18 18.9
003C0732 2019-03-04 19:15:02 20.5 18 19
003C0732 2019-03-04 18:43:56 20.5 18 19.4
003C0732 2019-03-04 18:12:48 20.5 18 19.4
003C0732 2019-03-04 17:41:40 20.5 18 19.4
003C0732 2019-03-04 17:10:32 20.5 17 19.3
003C0732 2019-03-04 16:39:24 20.5 17 19.3
003C0732 2019-03-04 16:08:18 20.4 17 19.6
003C0732 2019-03-04 15:37:12 20.4 17 20
003C0732 2019-03-04 15:06:05 20.4 17 20
003C0732 2019-03-04 14:34:57 20.3 17 20.3
003C0732 2019-03-04 14:03:50 20.3 17 20.3
003C0732 2019-03-04 13:32:44 20.3 17 18.6
003C0732 2019-03-04 13:01:38 20.3 17 18.9
003C0732 2019-03-04 12:30:32 20.2 17 18.9
003C0732 2019-03-04 11:59:28 20.2 17 18.9
003C0732 2019-03-04 11:28:22 20.2 17 18.9
003C0732 2019-03-04 10:57:17 20.1 17 18.8
003C0732 2019-03-04 10:26:12 20.1 17 18.9
003C0732 2019-03-04 09:55:06 20 17 18.9
003C0732 2019-03-04 09:24:00 20 17 19
003C0732 2019-03-04 08:52:54 20.2 17 19.3
003C0732 2019-03-04 08:51:42 20 17 19.4
003C0732 2019-03-04 08:20:35 20 17 19.4
003C0732 2019-03-04 07:49:32 20 17 19.5
003C0732 2019-03-04 07:18:25 20 17 19.4
003C0732 2019-03-04 06:47:19 20 17 19.3
003C0732 2019-03-04 06:16:13 20 17 19.1
003C0732 2019-03-04 05:45:07 20 17 19.3
003C0732 2019-03-04 05:14:03 20 17 19.3
003C0732 2019-03-04 04:42:57 20 17 19.3
003C0732 2019-03-04 04:11:53 20 17 19.4
003C0732 2019-03-04 03:40:47 20 17 19.1
003C0732 2019-03-04 03:09:43 20 17 18.8
003C0732 2019-03-04 02:38:38 20.1 17 18.9
003C0732 2019-03-04 02:07:31 20 17 18.6
003C0732 2019-03-04 01:36:25 20 17 18.8
003C0732 2019-03-04 01:05:21 20.1 17 18.6
003C0732 2019-03-04 00:34:13 20.1 17 18.9
003C0732 2019-03-04 00:03:07 20.1 17 19.2
003C0732 2019-03-03 23:32:02 20 17 19.6
003C0732 2019-03-03 23:00:57 20 17 19.2
003C0732 2019-03-03 22:29:51 20 17 19.3
003C0732 2019-03-03 21:58:44 20.1 17 19.3
003C0732 2019-03-03 21:27:38 20 17 19.5
003C0732 2019-03-03 20:56:31 20.1 17 19.6
003C0732 2019-03-03 20:25:25 20.1 17 19.3
003C0732 2019-03-03 19:54:18 20.1 18 19.2
003C0732 2019-03-03 19:23:11 20.1 18 19.5
003C0732 2019-03-03 18:52:06 20.1 18 19.5
003C0732 2019-03-03 18:21:01 20.1 18 19.4
003C0732 2019-03-03 17:49:56 20.2 18 19.8
003C0732 2019-03-03 17:18:50 20.2 18 19.9
003C0732 2019-03-03 16:47:45 20.2 18 19.6
003C0732 2019-03-03 16:16:39 20.2 18 19.6
003C0732 2019-03-03 15:45:33 20.2 18 19.6
003C0732 2019-03-03 15:14:28 20.2 18 20
003C0732 2019-03-03 14:43:23 20.2 18 20.4
003C0732 2019-03-03 14:12:15 20.1 18 20.3
003C0732 2019-03-03 13:41:10 20.1 18 20.5
003C0732 2019-03-03 13:10:03 20.1 18 20.4
003C0732 2019-03-03 12:38:59 20.1 18 20.2
003C0732 2019-03-03 12:07:53 20.1 18 20.2
003C0732 2019-03-03 11:36:48 20.2 18 19.7
003C0732 2019-03-03 11:05:41 20.1 18 19.5
003C0732 2019-03-03 10:34:35 20.1 18 19
003C0732 2019-03-03 10:03:28 20.2 18 19.1
003C0732 2019-03-03 09:32:23 20.1 18 18.8
003C0732 2019-03-03 09:01:17 20.2 18 18.9
003C0732 2019-03-03 08:30:12 20.2 18 18.7
003C0732 2019-03-03 07:59:07 20.2 18 18.6
003C0732 2019-03-03 07:28:01 20.2 18 18.6
003C0732 2019-03-03 06:56:24 20.2 18 18.4
003C0732 2019-03-03 06:25:20 20.2 18 18.4
003C0732 2019-03-03 05:54:14 20.2 18 18.4
003C0732 2019-03-03 05:23:10 20.2 18 17.8
003C0732 2019-03-03 04:52:04 20.2 18 17.5
003C0732 2019-03-03 04:20:59 20.3 18 19.8
003C0732 2019-03-03 03:49:53 20.3 18 19.8
003C0732 2019-03-03 03:18:48 20.3 18 19.8
003C0732 2019-03-03 02:47:41 20.3 18 19.5
003C0732 2019-03-03 02:16:34 20.3 18 19
003C0732 2019-03-03 01:45:25 20.3 18 19
003C0732 2019-03-03 01:14:17 20.3 18 18.6
003C0732 2019-03-03 00:43:09 20.3 18 18.8
003C0732 2019-03-03 00:12:03 20.3 17 18.9
003C0732 2019-03-02 23:40:56 20.3 17 19.3
003C0732 2019-03-02 23:09:49 20.3 17 19.5
003C0732 2019-03-02 22:38:43 20.3 17 19.4
003C0732 2019-03-02 22:07:37 20.3 17 20
003C0732 2019-03-02 21:36:32 20.3 17 20
003C0732 2019-03-02 21:05:24 20.4 17 20.1
003C0732 2019-03-02 20:34:23 20.4 17 19.9
003C0732 2019-03-02 20:03:16 20.4 17 20.3
003C0732 2019-03-02 19:01:06 20.4 17 20.3
003C0732 2019-03-02 18:30:02 20.5 17 21.7
003C0732 2019-03-02 17:58:57 20.5 17 21.7
003C0732 2019-03-02 17:27:50 20.5 17 21.7
003C0732 2019-03-02 16:56:44 20.5 17 21.8
003C0732 2019-03-02 16:25:38 20.5 17 22.8
003C0732 2019-03-02 15:54:34 20.4 16 22.8
003C0732 2019-03-02 15:23:28 20.4 16 23.6
003C0732 2019-03-02 14:52:23 20.4 16 22.8
003C0732 2019-03-02 14:21:20 20.3 16 22.9
003C0732 2019-03-02 13:50:16 20.3 16 22.9
003C0732 2019-03-02 13:19:09 20.3 16 22.9
003C0732 2019-03-02 12:48:04 20.3 16 23
003C0732 2019-03-02 12:16:59 20.3 16 23
003C0732 2019-03-02 11:45:55 20.3 16 23.1
003C0732 2019-03-02 11:14:47 20.3 16 23
003C0732 2019-03-02 10:43:40 20.3 15 23.1
003C0732 2019-03-02 10:12:34 20.3 15 22.9
003C0732 2019-03-02 09:41:27 20.3 15 22.9
003C0732 2019-03-02 09:10:21 20.3 15 22.8
003C0732 2019-03-02 08:39:15 20.4 15 22.6
003C0732 2019-03-02 08:08:08 20.4 15 22.7
003C0732 2019-03-02 07:37:02 20.4 15 22.6
003C0732 2019-03-02 07:05:55 20.4 15 22.7
003C0732 2019-03-02 06:34:48 20.4 15 22.5
003C0732 2019-03-02 06:03:43 20.4 15 22.4
003C0732 2019-03-02 05:32:37 20.4 15 21.4
003C0732 2019-03-02 05:00:58 20.4 14 21.2
003C0732 2019-03-02 04:29:52 20.5 14 21.4
003C0732 2019-03-02 03:58:45 20.5 14 20
003C0732 2019-03-02 03:27:39 20.5 14 20
003C0732 2019-03-02 02:56:33 20.5 14 17.9
003C0732 2019-03-02 02:25:28 20.5 14 17.9
003C0732 2019-03-02 01:54:21 20.6 14 17.7
003C0732 2019-03-02 01:23:14 20.6 14 17.4
003C0732 2019-03-02 00:52:07 20.7 14 17.7
003C0732 2019-03-02 00:20:59 20.7 14 17.4
003C0732 2019-03-01 23:49:53 20.7 14 17.7
003C0732 2019-03-01 23:18:46 20.8 14 17.4
003C0732 2019-03-01 22:47:40 20.8 13 17.8
003C0732 2019-03-01 22:16:34 20.9 13 18
003C0732 2019-03-01 21:45:28 20.9 13 18.3
003C0732 2019-03-01 21:14:23 20.9 13 18.3
003C0732 2019-03-01 20:43:20 20.9 13 20.3
003C0732 2019-03-01 20:12:14 20.9 13 20.2
003C0732 2019-03-01 19:41:07 20.9 13 20.4
003C0732 2019-03-01 19:10:00 21 13 20.5
003C0732 2019-03-01 18:38:52 21 13 20.4
003C0732 2019-03-01 18:07:46 21.1 13 20.7
003C0732 2019-03-01 17:36:38 21.2 13 21.1
003C0732 2019-03-01 17:05:31 21.2 14 21.1
003C0732 2019-03-01 16:34:23 21.2 14 21.3
003C0732 2019-03-01 16:03:13 21 14 21.5
003C0732 2019-03-01 15:32:06 20.9 15 21.2
003C0732 2019-03-01 15:00:58 20.9 15 21.4
003C0732 2019-03-01 14:29:47 20.8 15 21.4
003C0732 2019-03-01 13:58:40 20.8 15 21.6
003C0732 2019-03-01 13:27:33 20.7 15 21.7
003C0732 2019-03-01 12:56:27 20.8 16 21.7
003C0732 2019-03-01 12:25:21 20.8 16 21.8
003C0732 2019-03-01 11:54:13 20.8 16 21.7
003C0732 2019-03-01 11:23:06 20.8 17 21.8
003C0732 2019-03-01 10:52:00 20.7 17 21.9
003C0732 2019-03-01 10:20:54 20.6 17 22.1
003C0732 2019-03-01 09:49:48 20.5 17 22
003C0732 2019-03-01 09:18:42 20.4 17 22
003C0732 2019-03-01 08:47:36 20.4 17 22.8
003C0732 2019-03-01 08:16:30 20.5 18 23.1
003C0732 2019-03-01 07:45:26 20.5 18 22.2
003C0732 2019-03-01 07:14:21 20.5 18 22.5
003C0732 2019-03-01 06:43:15 20.5 19 22.5
003C0732 2019-03-01 06:12:11 20.5 19 22.5
003C0732 2019-03-01 05:41:05 20.5 19 22.8
003C0732 2019-03-01 05:10:00 20.6 19 23.5
003C0732 2019-03-01 04:38:54 20.6 19 23.2
003C0732 2019-03-01 04:07:46 20.6 20 23.3
003C0732 2019-03-01 03:36:40 20.8 20 23.2
003C0732 2019-03-01 03:35:28 20.6 20 23.8
003C0732 2019-03-01 03:04:21 20.6 20 23.8
003C0732 2019-03-01 02:33:14 20.6 20 23.7
003C0732 2019-03-01 02:02:06 20.6 21 23.7
003C0732 2019-03-01 01:30:58 20.6 21 23.6
003C0732 2019-03-01 00:59:49 20.6 21 23.6
003C0732 2019-03-01 00:28:41 20.7 21 23.6
003C0732 2019-02-28 23:57:33 20.7 22 23.6
003C0732 2019-02-28 23:26:25 20.7 22 23.5
003C0732 2019-02-28 22:55:19 20.7 22 23.5
003C0732 2019-02-28 22:24:08 20.8 22 23.4
003C0732 2019-02-28 21:52:59 20.8 23 23.3
003C0732 2019-02-28 21:21:52 20.9 23 23.2
003C0732 2019-02-28 20:50:45 20.9 23 23.1
003C0732 2019-02-28 20:19:39 20.9 23 22.3
003C0732 2019-02-28 19:48:31 20.9 23 22.1
003C0732 2019-02-28 19:17:24 20.9 24 21.9
003C0732 2019-02-28 18:46:17 21 24 21.7
003C0732 2019-02-28 18:15:13 21.1 24 21.6
003C0732 2019-02-28 17:44:04 21.2 25 21.5
003C0732 2019-02-28 17:12:59 21.3 25 21.2
003C0732 2019-02-28 16:41:55 21.3 26 19.8
003C0732 2019-02-28 16:10:50 21.2 26 20
003C0732 2019-02-28 15:39:44 21.2 25 20.1
003C0732 2019-02-28 15:08:37 21.2 25 21.6
003C0732 2019-02-28 14:37:32 21.2 25 20.2
003C0732 2019-02-28 14:06:26 21.1 25 20.2
003C0732 2019-02-28 13:35:22 21.1 25 20.6
003C0732 2019-02-28 13:04:16 21.1 24 20.5
003C0732 2019-02-28 12:33:08 21.1 24 20.5
003C0732 2019-02-28 12:02:02 21 24 20.4
003C0732 2019-02-28 11:30:55 21 24 20.5
003C0732 2019-02-28 10:59:46 20.9 24 20.4
003C0732 2019-02-28 10:28:35 20.8 23 20.5
003C0732 2019-02-28 09:57:28 20.7 23 20.4
003C0732 2019-02-28 09:26:21 20.7 22 20.6
003C0732 2019-02-28 08:55:15 20.7 22 21.8
003C0732 2019-02-28 08:24:07 20.7 22 22.1
003C0732 2019-02-28 07:53:01 20.7 22 22.1
003C0732 2019-02-28 07:21:54 20.7 22 22.1
003C0732 2019-02-28 06:50:46 20.7 22 22.2
003C0732 2019-02-28 06:19:38 20.7 22 22.3
003C0732 2019-02-28 05:48:31 20.7 22 22.2
003C0732 2019-02-28 05:17:23 20.7 22 23.1
003C0732 2019-02-28 04:46:16 20.7 22 23.1
003C0732 2019-02-28 04:15:07 20.8 22 23.1
003C0732 2019-02-28 03:44:00 20.7 22 23.2
003C0732 2019-02-28 03:12:53 20.8 22 23.1
003C0732 2019-02-28 02:41:48 20.8 22 23.8
003C0732 2019-02-28 02:10:42 20.8 22 23.1
003C0732 2019-02-28 01:39:03 20.8 22 23
003C0732 2019-02-28 01:07:57 20.8 22 22.8
003C0732 2019-02-28 00:36:50 20.8 22 22.9
003C0732 2019-02-28 00:05:42 20.9 22 22.9
003C0732 2019-02-27 23:34:34 20.9 22 22.9
003C0732 2019-02-27 23:03:26 20.9 22 22.9
003C0732 2019-02-27 22:32:18 20.9 23 22.9
003C0732 2019-02-27 22:01:11 21 23 23
003C0732 2019-02-27 21:30:03 21 23 23.1
003C0732 2019-02-27 20:58:55 21 23 23.2
003C0732 2019-02-27 20:27:46 21.1 23 22.4
003C0732 2019-02-27 19:56:37 21.1 23 22.3
003C0732 2019-02-27 19:25:30 21.2 23 22.4
003C0732 2019-02-27 18:54:22 21.3 23 22.5
003C0732 2019-02-27 18:23:14 21.4 24 22.4
003C0732 2019-02-27 17:52:07 21.5 24 22.6
003C0732 2019-02-27 17:20:57 21.5 25 22.7
003C0732 2019-02-27 16:49:48 21.5 26 21.6
003C0732 2019-02-27 16:18:40 21.5 26 21.9
003C0732 2019-02-27 15:47:34 21.4 26 22
003C0732 2019-02-27 15:16:22 21.3 26 21.9
003C0732 2019-02-27 14:45:12 21.2 26 21.9
003C0732 2019-02-27 14:14:05 21.2 25 21.1
003C0732 2019-02-27 13:42:56 21.1 25 21.3
003C0732 2019-02-27 13:11:49 21.1 25 22.4
003C0732 2019-02-27 12:40:41 21.1 25 22.6
003C0732 2019-02-27 12:09:33 21.1 25 22.8
003C0732 2019-02-27 11:38:25 21 25 22.7
003C0732 2019-02-27 11:07:18 21 25 22.9
003C0732 2019-02-27 10:36:11 20.9 25 23.1
003C0732 2019-02-27 10:05:03 20.9 24 23.2
003C0732 2019-02-27 09:33:56 20.8 24 23.3
003C0732 2019-02-27 09:02:49 20.8 23 23.4
003C0732 2019-02-27 08:31:46 20.8 23 23.4
003C0732 2019-02-27 08:00:38 20.8 23 23.6
003C0732 2019-02-27 07:29:31 20.8 23 23.6
003C0732 2019-02-27 06:58:24 20.8 23 23.8
003C0732 2019-02-27 06:27:17 20.9 23 23.9
003C0732 2019-02-27 05:56:10 20.9 23 23.7
003C0732 2019-02-27 05:25:04 20.9 23 23.8
003C0732 2019-02-27 04:53:57 20.9 23 23.6
003C0732 2019-02-27 04:22:51 20.9 23 23.6
003C0732 2019-02-27 03:51:45 20.9 23 23.8
003C0732 2019-02-27 03:20:38 20.9 23 23.6
003C0732 2019-02-27 02:49:31 21 23 23.5
003C0732 2019-02-27 02:18:24 21 23 23.6
003C0732 2019-02-27 01:47:17 21 23 23.5
003C0732 2019-02-27 01:16:10 21 23 23.4
003C0732 2019-02-27 00:45:04 21.1 23 23.3
003C0732 2019-02-27 00:13:56 21.1 23 22.4
003C0732 2019-02-26 23:42:14 21.2 23 22
003C0732 2019-02-26 23:11:08 21.2 23 22.1
003C0732 2019-02-26 22:40:00 21.3 24 21.9
003C0732 2019-02-26 22:08:53 21.3 24 21.6
003C0732 2019-02-26 21:37:45 21.4 24 22.4
003C0732 2019-02-26 21:06:36 21.4 24 23.2
003C0732 2019-02-26 20:35:27 21.5 24 23.8
003C0732 2019-02-26 20:04:17 21.5 24 24.3
003C0732 2019-02-26 19:33:08 21.5 24 24.7
003C0732 2019-02-26 19:02:00 21.6 24 25.1
003C0732 2019-02-26 18:30:52 21.7 24 25.4
003C0732 2019-02-26 17:59:43 21.7 24 25.8
003C0732 2019-02-26 17:28:34 21.8 24 26.2
003C0732 2019-02-26 16:57:24 21.8 25 26.5
003C0732 2019-02-26 16:26:16 21.7 25 26.9
003C0732 2019-02-26 15:55:08 21.6 25 26.9
003C0732 2019-02-26 15:24:00 21.5 25 27.2
003C0732 2019-02-26 14:52:52 21.4 25 27.5
003C0732 2019-02-26 14:21:45 21.4 24 27.7
003C0732 2019-02-26 13:50:38 21.4 25 28
003C0732 2019-02-26 13:19:32 21.4 25 28.2
003C0732 2019-02-26 12:48:23 21.3 25 28.4
003C0732 2019-02-26 12:17:18 21.2 25 28.7
003C0732 2019-02-26 11:46:10 21.2 24 28.9
003C0732 2019-02-26 11:15:04 21.1 24 29.1
003C0732 2019-02-26 10:43:59 21 24 29.3
003C0732 2019-02-26 10:12:48 20.9 24 29.5
003C0732 2019-02-26 09:41:40 20.9 23 29.7
003C0732 2019-02-26 09:10:33 20.8 23 29.8
003C0732 2019-02-26 08:39:24 20.8 23 29.7
003C0732 2019-02-26 08:08:17 20.8 23 29.7
003C0732 2019-02-26 07:37:10 20.8 23 29.7
003C0732 2019-02-26 07:06:02 20.8 22 29.7
003C0732 2019-02-26 06:34:55 20.8 22 29.7
003C0732 2019-02-26 06:03:48 20.8 22 29.7
003C0732 2019-02-26 05:32:40 20.9 22 29.7
003C0732 2019-02-26 05:01:31 20.9 22 29.7
003C0732 2019-02-26 04:30:24 20.9 22 29.7
003C0732 2019-02-26 03:59:16 20.9 22 29.7
003C0732 2019-02-26 03:28:09 20.9 22 29.5
003C0732 2019-02-26 02:57:01 20.9 22 29.5
003C0732 2019-02-26 02:25:55 20.9 22 29.3
003C0732 2019-02-26 01:54:49 20.9 21 29.1
003C0732 2019-02-26 01:23:43 21 21 28.9
003C0732 2019-02-26 00:52:35 21 21 28.7
003C0732 2019-02-26 00:21:28 21 21 28.5
003C0732 2019-02-25 23:50:22 21 21 28.2
003C0732 2019-02-25 23:19:14 21.1 21 28
003C0732 2019-02-25 22:48:08 21.1 21 27.7
003C0732 2019-02-25 22:17:00 21.2 21 27.4
003C0732 2019-02-25 21:45:20 21.2 21 26.8
003C0732 2019-02-25 21:14:13 21.3 21 26.4
003C0732 2019-02-25 20:43:05 21.3 21 26
003C0732 2019-02-25 20:11:58 21.3 21 26
003C0732 2019-02-25 19:40:51 21.4 21 25.7
003C0732 2019-02-25 19:09:43 21.5 21 25.2
003C0732 2019-02-25 18:38:37 21.5 21 24.8
003C0732 2019-02-25 18:07:29 21.5 21 24.2
003C0732 2019-02-25 17:36:22 21.5 21 23.5
003C0732 2019-02-25 17:05:15 21.5 22 22.8
003C0732 2019-02-25 16:34:07 21.6 22 21.8
003C0732 2019-02-25 16:03:00 21.6 22 20.4
003C0732 2019-02-25 15:31:51 21.5 22 19
003C0732 2019-02-25 15:00:43 21.4 23 19
003C0732 2019-02-25 14:29:36 21.3 22 19.3
003C0732 2019-02-25 13:58:28 21.2 22 19.8
003C0732 2019-02-25 13:27:20 21.2 22 20.1
003C0732 2019-02-25 12:56:11 21 22 20.2
003C0732 2019-02-25 12:25:04 21 22 20.2
003C0732 2019-02-25 11:53:58 20.9 22 20.5
003C0732 2019-02-25 11:22:51 20.9 22 20.5
003C0732 2019-02-25 10:51:47 20.8 22 20.7
003C0732 2019-02-25 10:20:40 20.7 22 20.9
003C0732 2019-02-25 09:49:34 20.6 22 22
003C0732 2019-02-25 09:18:27 20.6 21 22.1
003C0732 2019-02-25 08:47:19 20.5 22 22.1
003C0732 2019-02-25 08:16:14 20.6 22 22.2
003C0732 2019-02-25 07:45:07 20.6 22 22.1
003C0732 2019-02-25 07:14:00 20.6 22 21.9
003C0732 2019-02-25 06:42:53 20.6 22 22.1
003C0732 2019-02-25 06:11:44 20.6 22 22.1
003C0732 2019-02-25 05:40:36 20.6 22 22.3
003C0732 2019-02-25 05:09:27 20.6 22 22.4
003C0732 2019-02-25 04:38:19 20.6 22 22.5
003C0732 2019-02-25 04:07:10 20.6 22 22.6
003C0732 2019-02-25 03:36:02 20.6 22 22.6
003C0732 2019-02-25 03:04:54 20.6 22 22.6
003C0732 2019-02-25 02:33:46 20.6 22 22.8
003C0732 2019-02-25 02:02:37 20.6 22 22.7
003C0732 2019-02-25 01:31:28 20.6 22 22.5
003C0732 2019-02-25 01:00:21 20.6 22 22.3
003C0732 2019-02-25 00:29:12 20.7 22 22.4
003C0732 2019-02-24 23:58:04 20.7 22 22.2
003C0732 2019-02-24 23:26:55 20.7 22 22.1
003C0732 2019-02-24 22:55:47 20.7 22 22.2
003C0732 2019-02-24 22:24:43 20.7 22 22.2
003C0732 2019-02-24 21:53:37 20.7 22 22.1
003C0732 2019-02-24 21:22:32 20.7 22 22.2
003C0732 2019-02-24 20:51:26 20.7 22 21
003C0732 2019-02-24 20:20:17 20.8 22 21.2
003C0732 2019-02-24 19:48:37 20.7 22 21
003C0732 2019-02-24 19:17:30 20.7 22 21.3
003C0732 2019-02-24 18:46:24 20.8 22 21.2
003C0732 2019-02-24 18:15:19 20.7 22 21
003C0732 2019-02-24 17:44:16 20.8 22 20.9
003C0732 2019-02-24 17:13:08 20.7 22 20.9
003C0732 2019-02-24 16:42:02 20.7 21 20.9
003C0732 2019-02-24 16:10:56 20.7 21 21
003C0732 2019-02-24 15:39:49 20.7 21 21.3
003C0732 2019-02-24 15:08:44 20.7 21 21.4
003C0732 2019-02-24 14:37:38 20.7 21 21.2
003C0732 2019-02-24 14:06:29 20.7 21 21
003C0732 2019-02-24 13:35:21 20.7 21 20.9
003C0732 2019-02-24 13:04:14 20.7 21 21.4
003C0732 2019-02-24 12:33:07 20.7 21 21.7
003C0732 2019-02-24 12:02:01 20.8 21 21.6
003C0732 2019-02-24 11:30:56 20.7 21 21.8
003C0732 2019-02-24 10:59:48 20.7 21 21.9
003C0732 2019-02-24 10:28:43 20.7 20 21.9
003C0732 2019-02-24 09:57:34 20.7 20 21.9
003C0732 2019-02-24 09:26:27 20.8 20 21.9
003C0732 2019-02-24 08:55:19 20.7 20 21.7
003C0732 2019-02-24 08:24:11 20.8 20 21.9
003C0732 2019-02-24 07:53:04 20.8 20 21.8
003C0732 2019-02-24 07:21:59 20.8 20 22.1
003C0732 2019-02-24 06:50:50 20.8 20 22
003C0732 2019-02-24 06:19:43 20.8 20 22
003C0732 2019-02-24 05:48:36 20.8 20 22.2
003C0732 2019-02-24 05:17:29 20.8 20 22.1
003C0732 2019-02-24 04:46:20 20.8 20 22.1
003C0732 2019-02-24 04:15:14 20.8 20 22
003C0732 2019-02-24 03:44:08 20.9 20 22
003C0732 2019-02-24 03:13:02 20.9 20 21.8
003C0732 2019-02-24 02:41:57 20.9 20 21.7
003C0732 2019-02-24 02:10:48 20.9 19 21.6
003C0732 2019-02-24 01:39:39 20.9 19 21.8
003C0732 2019-02-24 01:08:31 20.9 19 22
003C0732 2019-02-24 00:37:22 20.9 19 22.1
003C0732 2019-02-24 00:06:16 21 19 21.7
003C0732 2019-02-23 23:35:08 21 19 21.7
003C0732 2019-02-23 23:03:58 21 19 21.6
003C0732 2019-02-23 22:32:48 21 19 21.5
003C0732 2019-02-23 22:01:40 21 18 21.4
003C0732 2019-02-23 21:30:34 21.1 18 21.5
003C0732 2019-02-23 20:59:27 21.1 18 21.4
003C0732 2019-02-23 20:28:19 21.1 18 21.5
003C0732 2019-02-23 19:57:11 21.1 18 21.6
003C0732 2019-02-23 19:26:04 21.2 18 21.4
003C0732 2019-02-23 18:54:56 21.1 17 21.4
003C0732 2019-02-23 18:23:48 21.2 17 21.3
003C0732 2019-02-23 17:52:07 21.1 17 21.4
003C0732 2019-02-23 17:20:58 21.1 17 21.4
003C0732 2019-02-23 16:49:50 21.1 16 21.4
003C0732 2019-02-23 16:18:46 21.1 16 21.4
003C0732 2019-02-23 15:47:38 21 16 21.6
003C0732 2019-02-23 15:16:33 20.9 16 21.6
003C0732 2019-02-23 14:45:29 20.8 16 21.5
003C0732 2019-02-23 14:14:22 20.8 15 21.7
003C0732 2019-02-23 13:43:18 20.9 15 21.5
003C0732 2019-02-23 13:12:15 20.8 15 21.4
003C0732 2019-02-23 12:41:07 20.8 15 21.4
003C0732 2019-02-23 12:10:02 20.8 15 21.4
003C0732 2019-02-23 11:38:56 20.8 15 21.9
003C0732 2019-02-23 11:07:51 20.8 15 21.5
003C0732 2019-02-23 10:36:47 20.8 15 21.8
003C0732 2019-02-23 10:05:43 20.8 14 22.1
003C0732 2019-02-23 09:34:36 20.8 14 21.9
003C0732 2019-02-23 09:03:31 20.8 14 21.7
003C0732 2019-02-23 08:32:24 20.8 14 22.1
003C0732 2019-02-23 08:01:17 20.8 14 22.2
003C0732 2019-02-23 07:30:12 20.8 14 22.1
003C0732 2019-02-23 06:59:08 20.8 13 22.3
003C0732 2019-02-23 06:28:03 20.8 13 22.3
003C0732 2019-02-23 05:56:57 20.8 13 22.3
003C0732 2019-02-23 05:25:52 20.8 13 22.1
003C0732 2019-02-23 04:54:46 20.8 13 22.2
003C0732 2019-02-23 04:23:39 20.8 13 22
003C0732 2019-02-23 03:52:35 20.8 13 22.1
003C0732 2019-02-23 03:21:29 20.8 12 22.1
003C0732 2019-02-23 02:50:20 20.8 12 22.4
003C0732 2019-02-23 02:19:14 20.8 12 22.4
003C0732 2019-02-23 01:48:07 20.8 12 22.5
003C0732 2019-02-23 01:17:01 20.9 12 22.3
003C0732 2019-02-23 00:45:55 20.9 12 22.5
003C0732 2019-02-23 00:14:49 20.9 12 22.5
003C0732 2019-02-22 23:43:43 20.9 12 22.3
003C0732 2019-02-22 23:12:38 20.9 12 22.2
003C0732 2019-02-22 22:41:29 20.9 12 21.9
003C0732 2019-02-22 22:10:22 21 12 22
003C0732 2019-02-22 21:39:16 21 12 21.9
003C0732 2019-02-22 21:08:09 21 12 21.5
003C0732 2019-02-22 20:37:03 21 12 21.5
003C0732 2019-02-22 20:05:56 21 12 21.5
003C0732 2019-02-22 19:34:49 21.1 12 21.1
003C0732 2019-02-22 19:03:42 21.1 12 20.6
003C0732 2019-02-22 18:32:35 21.1 12 20.6
003C0732 2019-02-22 18:01:27 21.1 12 20.6
003C0732 2019-02-22 17:30:20 21.1 12 20.3
003C0732 2019-02-22 16:59:13 21.1 12 20.4
003C0732 2019-02-22 16:28:08 21.1 12 20.4
003C0732 2019-02-22 15:56:27 21 12 20.5
003C0732 2019-02-22 15:45:59 21 12 20.4
003C0732 2019-02-22 15:35:31 20.9 12 20.3
003C0732 2019-02-22 15:25:03 20.9 12 19.8
003C0732 2019-02-22 15:14:34 20.9 12 19.8
003C0732 2019-02-22 15:04:06 20.8 12 19.7
003C0732 2019-02-22 14:53:38 20.8 12 19.5
003C0732 2019-02-22 14:43:10 20.8 12 19.3
003C0732 2019-02-22 14:32:41 20.8 12 19.1
003C0732 2019-02-22 14:22:13 20.8 13 19.6
003C0732 2019-02-22 14:11:43 20.8 13 19.8
003C0732 2019-02-22 14:01:15 20.7 13 19.4
003C0732 2019-02-22 13:50:47 20.7 13 19.3
003C0732 2019-02-22 13:40:19 20.7 13 19.1
003C0732 2019-02-22 13:29:51 20.7 13 19.1
003C0732 2019-02-22 13:19:26 20.7 13 19.3
003C0732 2019-02-22 13:08:56 20.7 13 19.3
003C0732 2019-02-22 12:58:26 20.7 13 19.6
003C0732 2019-02-22 12:47:59 20.7 13 19.6
003C0732 2019-02-22 12:37:30 20.7 13 19.9
003C0732 2019-02-22 12:27:04 20.6 13 19.7
003C0732 2019-02-22 12:16:34 20.6 13 20
003C0732 2019-02-22 12:06:06 20.6 13 19.9
003C0732 2019-02-22 11:55:38 20.6 13 19.9
003C0732 2019-02-22 11:45:10 20.6 13 20.1
003C0732 2019-02-22 11:34:44 20.6 13 20.1
003C0732 2019-02-22 11:24:13 20.5 13 19.8
003C0732 2019-02-22 11:13:47 20.5 13 19.6
003C0732 2019-02-22 11:03:16 20.5 13 20.1
003C0732 2019-02-22 10:52:47 20.5 13 20.2
003C0732 2019-02-22 10:42:19 20.5 13 20.4
003C0732 2019-02-22 10:31:50 20.4 13 21
003C0732 2019-02-22 10:21:21 20.4 13 21.2
003C0732 2019-02-22 10:10:52 20.4 13 21.6
003C0732 2019-02-22 10:00:24 20.4 13 21.4
003C0732 2019-02-22 09:49:56 20.4 13 21.4
003C0732 2019-02-22 09:39:27 20.4 13 21.5
003C0732 2019-02-22 09:28:59 20.4 13 21.8
003C0732 2019-02-22 09:18:31 20.4 13 22
003C0732 2019-02-22 09:08:03 20.4 13 22.1
003C0732 2019-02-22 08:57:32 20.4 13 22.2
003C0732 2019-02-22 08:47:06 20.4 13 22.2
003C0732 2019-02-22 08:36:36 20.4 13 22.2
003C0732 2019-02-22 08:26:07 20.4 13 22.2
003C0732 2019-02-22 08:15:39 20.5 13 22
003C0732 2019-02-22 08:05:11 20.4 13 22.1
003C0732 2019-02-22 07:54:41 20.4 13 22
003C0732 2019-02-22 07:44:13 20.5 13 22.1
003C0732 2019-02-22 07:33:45 20.5 13 22.3
003C0732 2019-02-22 07:23:16 20.5 13 22
003C0732 2019-02-22 07:12:15 20.5 13 22.4
003C0732 2019-02-22 06:41:09 20.5 13 22.5
003C0732 2019-02-22 06:10:01 20.5 13 22.1
003C0732 2019-02-22 05:38:56 20.5 13 22
003C0732 2019-02-22 05:07:50 20.5 13 21.8
003C0732 2019-02-22 04:36:45 20.5 13 21.3
003C0732 2019-02-22 04:05:39 20.5 13 21.1
003C0732 2019-02-22 03:34:32 20.6 13 20.6
003C0732 2019-02-22 03:03:26 20.6 13 21.8
003C0732 2019-02-22 02:32:21 20.6 13 22.7
003C0732 2019-02-22 02:01:17 20.6 13 23.4
003C0732 2019-02-22 01:30:11 20.6 13 23.2
003C0732 2019-02-22 00:59:06 20.6 13 23.9
003C0732 2019-02-22 00:27:59 20.6 13 24.5
003C0732 2019-02-21 23:56:53 20.7 13 24.3
003C0732 2019-02-21 23:25:46 20.7 13 24.3
003C0732 2019-02-21 22:54:40 20.7 13 24.3
003C0732 2019-02-21 22:23:33 20.8 13 24.3
003C0732 2019-02-21 21:52:26 20.8 13 24.3
003C0732 2019-02-21 21:21:19 20.8 13 24.2
003C0732 2019-02-21 20:50:11 20.9 13 24.2
003C0732 2019-02-21 20:19:06 20.9 13 24.1
003C0732 2019-02-21 19:47:59 20.9 13 24
003C0732 2019-02-21 19:16:52 21 13 24
003C0732 2019-02-21 18:45:44 21 13 23.9
003C0732 2019-02-21 18:14:35 21.1 13 23.9
003C0732 2019-02-21 17:43:28 21.1 14 23.8
003C0732 2019-02-21 17:12:20 21 14 23.8
003C0732 2019-02-21 16:41:13 20.9 13 24.5
003C0732 2019-02-21 16:10:07 20.8 13 24.5
003C0732 2019-02-21 15:38:59 20.7 14 24.5
003C0732 2019-02-21 15:07:52 20.6 14 24.4
003C0732 2019-02-21 14:36:46 20.6 14 24.4
003C0732 2019-02-21 14:05:40 20.6 14 23.8
003C0732 2019-02-21 13:34:31 20.6 14 23
003C0732 2019-02-21 13:03:25 20.6 15 22
003C0732 2019-02-21 12:32:17 20.5 15 22
003C0732 2019-02-21 12:01:09 20.5 15 22
003C0732 2019-02-21 11:30:00 20.5 16 20.9
003C0732 2019-02-21 10:58:51 20.5 16 20.9
003C0732 2019-02-21 10:27:42 20.5 16 20.9
003C0732 2019-02-21 09:56:36 20.5 16 20.7
003C0732 2019-02-21 09:25:25 20.5 17 20.7
003C0732 2019-02-21 08:54:17 20.5 17 20.8
003C0732 2019-02-21 08:23:09 20.5 17 20.7
003C0732 2019-02-21 07:52:02 20.5 17 20.8
003C0732 2019-02-21 07:20:59 20.6 18 20.8
003C0732 2019-02-21 06:49:54 20.6 18 20.9
003C0732 2019-02-21 06:18:50 20.6 18 20.7
003C0732 2019-02-21 05:47:47 20.8 18 20.7
003C0732 2019-02-21 05:46:34 20.6 18 20.5
003C0732 2019-02-21 05:15:32 20.6 18 20.5
003C0732 2019-02-21 04:44:25 20.6 18 20.5
003C0732 2019-02-21 04:13:17 20.6 18 18.5
003C0732 2019-02-21 03:42:09 20.6 19 18.5
003C0732 2019-02-21 03:11:01 20.6 19 18.6
003C0732 2019-02-21 02:39:53 20.6 19 18.6
003C0732 2019-02-21 02:08:47 20.6 19 20.5
003C0732 2019-02-21 01:37:41 20.6 19 20.5
003C0732 2019-02-21 01:06:35 20.6 19 21.8
003C0732 2019-02-21 00:35:29 20.6 19 22.8
003C0732 2019-02-21 00:04:22 20.7 19 22.8
003C0732 2019-02-20 23:33:14 20.7 20 21.8
003C0732 2019-02-20 23:02:06 20.7 20 21.8
003C0732 2019-02-20 22:30:59 20.7 20 21.7
003C0732 2019-02-20 21:59:51 20.7 20 22
003C0732 2019-02-20 21:28:42 20.7 20 22.1
003C0732 2019-02-20 20:57:34 20.7 20 23
003C0732 2019-02-20 20:26:28 20.7 20 23
003C0732 2019-02-20 19:55:23 20.7 20 23.1
003C0732 2019-02-20 19:24:15 20.7 20 23.1
003C0732 2019-02-20 18:53:05 20.7 21 23.1
003C0732 2019-02-20 18:21:57 20.8 21 23
003C0732 2019-02-20 17:50:49 20.8 21 23.1
003C0732 2019-02-20 17:19:41 20.8 22 23.1
003C0732 2019-02-20 16:48:32 20.8 22 23.1
003C0732 2019-02-20 16:17:24 20.8 22 23.1
003C0732 2019-02-20 15:46:17 20.7 22 23.1
003C0732 2019-02-20 15:15:10 20.7 23 23.1
003C0732 2019-02-20 14:12:56 20.8 24 23.1